<?xml version="1.0" encoding="UTF-8"?>
<gpx version="1.1" creator="2bulu-scraper" xmlns="http://www.topografix.com/GPX/1/1">
  <metadata><name>20260314威远穹窿地貌骑龙村穿山洞 实走轨迹</name><desc>source: 2bulu.com trackId=80461718; exported 2026-09-01T17:53:37.033Z</desc>
    <bounds minlat="29.6821804" minlon="104.62070465" maxlat="29.71461868" maxlon="104.64853668"/>
    <link href="https://www.2bulu.com/track/t-pWzSdqZr9Cvp%252FR2KBg5Tzw%253D%253D.htm"><text>2bulu 源页面</text></link>
  </metadata>
  <wpt lat="29.68247" lon="104.62088"><ele>424</ele><name></name></wpt>
  <wpt lat="29.682367" lon="104.62108"><ele>433</ele><name></name></wpt>
  <wpt lat="29.682367" lon="104.62108"><ele>433</ele><name></name></wpt>
  <wpt lat="29.68421" lon="104.62429"><ele>513</ele><name></name></wpt>
  <wpt lat="29.685566" lon="104.62495"><ele>563</ele><name></name></wpt>
  <wpt lat="29.695204" lon="104.63113"><ele>555</ele><name></name></wpt>
  <wpt lat="29.695204" lon="104.63113"><ele>555</ele><name></name></wpt>
  <wpt lat="29.69446" lon="104.63137"><ele>568</ele><name></name></wpt>
  <wpt lat="29.693836" lon="104.63143"><ele>586</ele><name></name></wpt>
  <wpt lat="29.696888" lon="104.63595"><ele>551</ele><name></name></wpt>
  <wpt lat="29.69688" lon="104.63614"><ele>550</ele><name></name></wpt>
  <wpt lat="29.697798" lon="104.636375"><ele>544</ele><name></name></wpt>
  <wpt lat="29.697792" lon="104.63643"><ele>545</ele><name></name></wpt>
  <wpt lat="29.697792" lon="104.63643"><ele>545</ele><name></name></wpt>
  <wpt lat="29.699669" lon="104.63771"><ele>555</ele><name></name></wpt>
  <wpt lat="29.7051" lon="104.6377"><ele>571</ele><name></name></wpt>
  <wpt lat="29.7051" lon="104.6377"><ele>571</ele><name></name></wpt>
  <wpt lat="29.705133" lon="104.63776"><ele>571</ele><name></name></wpt>
  <wpt lat="29.708382" lon="104.63944"><ele>548</ele><name></name></wpt>
  <wpt lat="29.708382" lon="104.63944"><ele>548</ele><name></name></wpt>
  <wpt lat="29.708652" lon="104.63978"><ele>553</ele><name></name></wpt>
  <wpt lat="29.709045" lon="104.64023"><ele>557</ele><name></name></wpt>
  <wpt lat="29.709045" lon="104.64023"><ele>557</ele><name></name></wpt>
  <wpt lat="29.709301" lon="104.6402"><ele>558</ele><name></name></wpt>
  <wpt lat="29.711475" lon="104.64118"><ele>546</ele><name></name></wpt>
  <wpt lat="29.711475" lon="104.64118"><ele>546</ele><name></name></wpt>
  <wpt lat="29.714285" lon="104.64545"><ele>537</ele><name></name></wpt>
  <wpt lat="29.713339" lon="104.64469"><ele>567</ele><name></name></wpt>
  <wpt lat="29.71326" lon="104.644714"><ele>579</ele><name></name></wpt>
  <wpt lat="29.713339" lon="104.64469"><ele>567</ele><name></name></wpt>
  <wpt lat="29.71306" lon="104.644646"><ele>589</ele><name></name></wpt>
  <wpt lat="29.712273" lon="104.64543"><ele>613</ele><name></name></wpt>
  <wpt lat="29.712273" lon="104.64543"><ele>613</ele><name></name></wpt>
  <wpt lat="29.712292" lon="104.64546"><ele>612</ele><name></name></wpt>
  <wpt lat="29.712292" lon="104.64546"><ele>612</ele><name></name></wpt>
  <wpt lat="29.712292" lon="104.64546"><ele>612</ele><name></name></wpt>
  <wpt lat="29.71231" lon="104.6455"><ele>612</ele><name></name></wpt>
  <wpt lat="29.71238" lon="104.6457"><ele>607</ele><name></name></wpt>
  <wpt lat="29.712393" lon="104.64573"><ele>607</ele><name></name></wpt>
  <wpt lat="29.712631" lon="104.64616"><ele>604</ele><name></name></wpt>
  <wpt lat="29.712698" lon="104.646324"><ele>608</ele><name></name></wpt>
  <wpt lat="29.712698" lon="104.646324"><ele>608</ele><name></name></wpt>
  <wpt lat="29.712803" lon="104.64709"><ele>591</ele><name></name></wpt>
  <wpt lat="29.708866" lon="104.640236"><ele>541</ele><name></name></wpt>
  <wpt lat="29.70552" lon="104.64559"><ele>480</ele><name></name></wpt>
  <wpt lat="29.7055" lon="104.64574"><ele>477</ele><name></name></wpt>
  <wpt lat="29.70552" lon="104.64577"><ele>480</ele><name></name></wpt>
  <wpt lat="29.70614" lon="104.64647"><ele>462</ele><name></name></wpt>
  <wpt lat="29.705484" lon="104.647255"><ele>482</ele><name></name></wpt>
  <wpt lat="29.70471" lon="104.648224"><ele>456</ele><name></name></wpt>
  <wpt lat="29.70387" lon="104.647484"><ele>445</ele><name></name></wpt>
  <wpt lat="29.699259" lon="104.64892"><ele>489</ele><name>东侧有石梯上山</name></wpt>
  <wpt lat="29.699188" lon="104.6471"><ele>425</ele><name></name></wpt>
  <wpt lat="29.699188" lon="104.6471"><ele>425</ele><name></name></wpt>
  <wpt lat="29.691723" lon="104.64091"><ele>428</ele><name></name></wpt>
  <wpt lat="29.69187" lon="104.6402"><ele>427</ele><name></name></wpt>
  <wpt lat="29.692844" lon="104.63961"><ele>427</ele><name></name></wpt>
  <wpt lat="29.69343" lon="104.63868"><ele>443</ele><name></name></wpt>
  <wpt lat="29.693455" lon="104.63783"><ele>463</ele><name></name></wpt>
  <wpt lat="29.692774" lon="104.63749"><ele>457</ele><name>北侧可过河上山</name></wpt>
  <wpt lat="29.692825" lon="104.6366"><ele>556</ele><name></name></wpt>
  <wpt lat="29.692783" lon="104.63652"><ele>557</ele><name></name></wpt>
  <wpt lat="29.68726" lon="104.63349"><ele>488</ele><name></name></wpt>
  <wpt lat="29.683464" lon="104.626434"><ele>454</ele><name>北侧可过河上山</name></wpt>
  <wpt lat="29.68225" lon="104.621956"><ele>454</ele><name></name></wpt>
  <wpt lat="29.68225" lon="104.621956"><ele>454</ele><name></name></wpt>
  <trk><name>20260314威远穹窿地貌骑龙村穿山洞 实走轨迹</name>
      <trkseg>
        <trkpt lat="29.6821804" lon="104.62075806"><ele>403.5</ele><time></time></trkpt>
        <trkpt lat="29.68232346" lon="104.62071991"><ele>403.8</ele><time></time></trkpt>
        <trkpt lat="29.68234253" lon="104.62070465"><ele>409.6</ele><time></time></trkpt>
        <trkpt lat="29.68245316" lon="104.62077332"><ele>413.2</ele><time></time></trkpt>
        <trkpt lat="29.6825161" lon="104.62080383"><ele>414.5</ele><time></time></trkpt>
        <trkpt lat="29.68252563" lon="104.62084961"><ele>419.7</ele><time></time></trkpt>
        <trkpt lat="29.68247032" lon="104.62088013"><ele>424</ele><time></time></trkpt>
        <trkpt lat="29.68241692" lon="104.62096405"><ele>425.7</ele><time></time></trkpt>
        <trkpt lat="29.68236732" lon="104.62107849"><ele>432.7</ele><time></time></trkpt>
        <trkpt lat="29.6823616" lon="104.62119293"><ele>444</ele><time></time></trkpt>
        <trkpt lat="29.68235397" lon="104.62134552"><ele>460.6</ele><time></time></trkpt>
        <trkpt lat="29.68248558" lon="104.62134552"><ele>454.2</ele><time></time></trkpt>
        <trkpt lat="29.68259811" lon="104.62141418"><ele>450</ele><time></time></trkpt>
        <trkpt lat="29.68259811" lon="104.62143707"><ele>440.9</ele><time></time></trkpt>
        <trkpt lat="29.68262863" lon="104.62152863"><ele>439</ele><time></time></trkpt>
        <trkpt lat="29.68269348" lon="104.62163544"><ele>438.7</ele><time></time></trkpt>
        <trkpt lat="29.68273163" lon="104.62171173"><ele>439.9</ele><time></time></trkpt>
        <trkpt lat="29.68278503" lon="104.62176514"><ele>441.1</ele><time></time></trkpt>
        <trkpt lat="29.68282509" lon="104.62181091"><ele>440.6</ele><time></time></trkpt>
        <trkpt lat="29.68285179" lon="104.6219101"><ele>454.4</ele><time></time></trkpt>
        <trkpt lat="29.68288994" lon="104.62199402"><ele>469.8</ele><time></time></trkpt>
        <trkpt lat="29.6829319" lon="104.62200928"><ele>469.9</ele><time></time></trkpt>
        <trkpt lat="29.68298149" lon="104.62206268"><ele>473.8</ele><time></time></trkpt>
        <trkpt lat="29.68304253" lon="104.62203979"><ele>473.4</ele><time></time></trkpt>
        <trkpt lat="29.68309021" lon="104.62210083"><ele>470.5</ele><time></time></trkpt>
        <trkpt lat="29.68314743" lon="104.62204742"><ele>473.3</ele><time></time></trkpt>
        <trkpt lat="29.68314171" lon="104.62207794"><ele>475.1</ele><time></time></trkpt>
        <trkpt lat="29.68316841" lon="104.62207794"><ele>480.8</ele><time></time></trkpt>
        <trkpt lat="29.6831913" lon="104.62210083"><ele>484.3</ele><time></time></trkpt>
        <trkpt lat="29.68320656" lon="104.62216949"><ele>482.5</ele><time></time></trkpt>
        <trkpt lat="29.68327332" lon="104.62215424"><ele>485.2</ele><time></time></trkpt>
        <trkpt lat="29.68335915" lon="104.62219238"><ele>486</ele><time></time></trkpt>
        <trkpt lat="29.68339729" lon="104.62221527"><ele>486.8</ele><time></time></trkpt>
        <trkpt lat="29.68346214" lon="104.62228394"><ele>490</ele><time></time></trkpt>
        <trkpt lat="29.68351746" lon="104.62233734"><ele>493.1</ele><time></time></trkpt>
        <trkpt lat="29.68358994" lon="104.62240601"><ele>494.1</ele><time></time></trkpt>
        <trkpt lat="29.68367195" lon="104.6224823"><ele>504.1</ele><time></time></trkpt>
        <trkpt lat="29.68377876" lon="104.62255096"><ele>507.4</ele><time></time></trkpt>
        <trkpt lat="29.68385696" lon="104.62257385"><ele>508.1</ele><time></time></trkpt>
        <trkpt lat="29.68393707" lon="104.62260437"><ele>509.9</ele><time></time></trkpt>
        <trkpt lat="29.68399048" lon="104.62263489"><ele>512.4</ele><time></time></trkpt>
        <trkpt lat="29.68401527" lon="104.62265015"><ele>513.7</ele><time></time></trkpt>
        <trkpt lat="29.68397522" lon="104.62271881"><ele>513.9</ele><time></time></trkpt>
        <trkpt lat="29.68395805" lon="104.62285614"><ele>511.9</ele><time></time></trkpt>
        <trkpt lat="29.68403435" lon="104.62294006"><ele>513.8</ele><time></time></trkpt>
        <trkpt lat="29.68413162" lon="104.62301636"><ele>515.1</ele><time></time></trkpt>
        <trkpt lat="29.68420792" lon="104.62307739"><ele>515.2</ele><time></time></trkpt>
        <trkpt lat="29.68427277" lon="104.62317657"><ele>520.3</ele><time></time></trkpt>
        <trkpt lat="29.68438911" lon="104.6233139"><ele>519.7</ele><time></time></trkpt>
        <trkpt lat="29.68440628" lon="104.62347412"><ele>518.9</ele><time></time></trkpt>
        <trkpt lat="29.68434715" lon="104.62355042"><ele>521.5</ele><time></time></trkpt>
        <trkpt lat="29.68430138" lon="104.62362671"><ele>521.9</ele><time></time></trkpt>
        <trkpt lat="29.68423462" lon="104.62374115"><ele>524.3</ele><time></time></trkpt>
        <trkpt lat="29.68423843" lon="104.62394714"><ele>517.1</ele><time></time></trkpt>
        <trkpt lat="29.68422127" lon="104.62409973"><ele>517.5</ele><time></time></trkpt>
        <trkpt lat="29.68422127" lon="104.62418365"><ele>516.2</ele><time></time></trkpt>
        <trkpt lat="29.68420982" lon="104.62429047"><ele>512.9</ele><time></time></trkpt>
        <trkpt lat="29.68426132" lon="104.6244278"><ele>514.2</ele><time></time></trkpt>
        <trkpt lat="29.6843853" lon="104.6245575"><ele>514.6</ele><time></time></trkpt>
        <trkpt lat="29.68453407" lon="104.62458038"><ele>511.7</ele><time></time></trkpt>
        <trkpt lat="29.68464851" lon="104.62458038"><ele>511.5</ele><time></time></trkpt>
        <trkpt lat="29.68479729" lon="104.62456512"><ele>515.6</ele><time></time></trkpt>
        <trkpt lat="29.68493462" lon="104.62458801"><ele>520</ele><time></time></trkpt>
        <trkpt lat="29.68503952" lon="104.62463379"><ele>533.2</ele><time></time></trkpt>
        <trkpt lat="29.68514061" lon="104.62464905"><ele>525.6</ele><time></time></trkpt>
        <trkpt lat="29.68523026" lon="104.62467194"><ele>521.5</ele><time></time></trkpt>
        <trkpt lat="29.6852684" lon="104.62472534"><ele>520.8</ele><time></time></trkpt>
        <trkpt lat="29.68537331" lon="104.62475586"><ele>528.6</ele><time></time></trkpt>
        <trkpt lat="29.68547058" lon="104.62480164"><ele>534.7</ele><time></time></trkpt>
        <trkpt lat="29.68556595" lon="104.62494659"><ele>563.3</ele><time></time></trkpt>
        <trkpt lat="29.68563843" lon="104.625"><ele>585.8</ele><time></time></trkpt>
        <trkpt lat="29.68572807" lon="104.625"><ele>585.7</ele><time></time></trkpt>
        <trkpt lat="29.68578911" lon="104.62483215"><ele>531.8</ele><time></time></trkpt>
        <trkpt lat="29.68579674" lon="104.62477875"><ele>525.6</ele><time></time></trkpt>
        <trkpt lat="29.68571854" lon="104.62483215"><ele>533.1</ele><time></time></trkpt>
        <trkpt lat="29.68571663" lon="104.62491608"><ele>534</ele><time></time></trkpt>
        <trkpt lat="29.6857872" lon="104.62506866"><ele>541.7</ele><time></time></trkpt>
        <trkpt lat="29.68575478" lon="104.62516022"><ele>536.8</ele><time></time></trkpt>
        <trkpt lat="29.68570137" lon="104.62521362"><ele>527.5</ele><time></time></trkpt>
        <trkpt lat="29.68566322" lon="104.62522888"><ele>519.2</ele><time></time></trkpt>
        <trkpt lat="29.68561363" lon="104.62528229"><ele>515</ele><time></time></trkpt>
        <trkpt lat="29.68556976" lon="104.62531281"><ele>503.8</ele><time></time></trkpt>
        <trkpt lat="29.68551254" lon="104.62535858"><ele>502.4</ele><time></time></trkpt>
        <trkpt lat="29.68543816" lon="104.6253891"><ele>502.6</ele><time></time></trkpt>
        <trkpt lat="29.6853714" lon="104.62543488"><ele>500.6</ele><time></time></trkpt>
        <trkpt lat="29.68533707" lon="104.62553406"><ele>498.7</ele><time></time></trkpt>
        <trkpt lat="29.68527603" lon="104.6257019"><ele>498.1</ele><time></time></trkpt>
        <trkpt lat="29.68517494" lon="104.62583923"><ele>497.6</ele><time></time></trkpt>
        <trkpt lat="29.685112" lon="104.62598419"><ele>497.6</ele><time></time></trkpt>
        <trkpt lat="29.68501854" lon="104.62615967"><ele>496.9</ele><time></time></trkpt>
        <trkpt lat="29.68489838" lon="104.62628174"><ele>498.1</ele><time></time></trkpt>
        <trkpt lat="29.68477249" lon="104.62643433"><ele>497.3</ele><time></time></trkpt>
        <trkpt lat="29.68468857" lon="104.62658691"><ele>497.5</ele><time></time></trkpt>
        <trkpt lat="29.68476486" lon="104.62677765"><ele>492.4</ele><time></time></trkpt>
        <trkpt lat="29.68489265" lon="104.62696075"><ele>484.2</ele><time></time></trkpt>
        <trkpt lat="29.68501854" lon="104.62703705"><ele>482.6</ele><time></time></trkpt>
        <trkpt lat="29.6852169" lon="104.62715149"><ele>498.8</ele><time></time></trkpt>
        <trkpt lat="29.68535233" lon="104.62725067"><ele>514.3</ele><time></time></trkpt>
        <trkpt lat="29.6852932" lon="104.62740326"><ele>502</ele><time></time></trkpt>
        <trkpt lat="29.68518448" lon="104.62746429"><ele>495.6</ele><time></time></trkpt>
        <trkpt lat="29.68504906" lon="104.62748718"><ele>491.8</ele><time></time></trkpt>
        <trkpt lat="29.68492508" lon="104.62747955"><ele>488.9</ele><time></time></trkpt>
        <trkpt lat="29.68477058" lon="104.62754822"><ele>488</ele><time></time></trkpt>
        <trkpt lat="29.68475342" lon="104.62771606"><ele>489.4</ele><time></time></trkpt>
        <trkpt lat="29.68478584" lon="104.62792969"><ele>488</ele><time></time></trkpt>
        <trkpt lat="29.68481064" lon="104.62814331"><ele>488</ele><time></time></trkpt>
        <trkpt lat="29.68487167" lon="104.62834167"><ele>488.2</ele><time></time></trkpt>
        <trkpt lat="29.68491554" lon="104.6285553"><ele>487.5</ele><time></time></trkpt>
        <trkpt lat="29.68497276" lon="104.62874603"><ele>487.6</ele><time></time></trkpt>
        <trkpt lat="29.6850605" lon="104.62889862"><ele>484.2</ele><time></time></trkpt>
        <trkpt lat="29.68515778" lon="104.62902069"><ele>482.6</ele><time></time></trkpt>
        <trkpt lat="29.68529129" lon="104.62911224"><ele>482.3</ele><time></time></trkpt>
        <trkpt lat="29.68544006" lon="104.6292038"><ele>480.3</ele><time></time></trkpt>
        <trkpt lat="29.68552399" lon="104.6293335"><ele>479.9</ele><time></time></trkpt>
        <trkpt lat="29.68564796" lon="104.62944794"><ele>479.2</ele><time></time></trkpt>
        <trkpt lat="29.68578339" lon="104.62956238"><ele>476.1</ele><time></time></trkpt>
        <trkpt lat="29.68596458" lon="104.62961578"><ele>473.3</ele><time></time></trkpt>
        <trkpt lat="29.68613243" lon="104.6295929"><ele>478.1</ele><time></time></trkpt>
        <trkpt lat="29.68629646" lon="104.62955475"><ele>474.1</ele><time></time></trkpt>
        <trkpt lat="29.68647194" lon="104.62952423"><ele>473.8</ele><time></time></trkpt>
        <trkpt lat="29.6866951" lon="104.62944794"><ele>480.9</ele><time></time></trkpt>
        <trkpt lat="29.68681717" lon="104.62937164"><ele>477.5</ele><time></time></trkpt>
        <trkpt lat="29.68697548" lon="104.62931824"><ele>474.8</ele><time></time></trkpt>
        <trkpt lat="29.68708229" lon="104.62924957"><ele>474.6</ele><time></time></trkpt>
        <trkpt lat="29.68743896" lon="104.62911224"><ele>476.6</ele><time></time></trkpt>
        <trkpt lat="29.68753815" lon="104.62899017"><ele>467.8</ele><time></time></trkpt>
        <trkpt lat="29.6877594" lon="104.62887573"><ele>485.9</ele><time></time></trkpt>
        <trkpt lat="29.68790627" lon="104.62877655"><ele>476.8</ele><time></time></trkpt>
        <trkpt lat="29.68833542" lon="104.62844849"><ele>488</ele><time></time></trkpt>
        <trkpt lat="29.68850517" lon="104.62841797"><ele>495.9</ele><time></time></trkpt>
        <trkpt lat="29.68909264" lon="104.62851715"><ele>534.8</ele><time></time></trkpt>
        <trkpt lat="29.68925095" lon="104.62854004"><ele>515.7</ele><time></time></trkpt>
        <trkpt lat="29.68945503" lon="104.62860107"><ele>516.2</ele><time></time></trkpt>
        <trkpt lat="29.68971252" lon="104.6286087"><ele>536.3</ele><time></time></trkpt>
        <trkpt lat="29.68989754" lon="104.62862396"><ele>546</ele><time></time></trkpt>
        <trkpt lat="29.69006729" lon="104.62861633"><ele>552.4</ele><time></time></trkpt>
        <trkpt lat="29.69010162" lon="104.62854767"><ele>525.7</ele><time></time></trkpt>
        <trkpt lat="29.69013786" lon="104.62844086"><ele>503.2</ele><time></time></trkpt>
        <trkpt lat="29.69019318" lon="104.62832642"><ele>490.3</ele><time></time></trkpt>
        <trkpt lat="29.69025612" lon="104.62818146"><ele>482.5</ele><time></time></trkpt>
        <trkpt lat="29.69037247" lon="104.62805176"><ele>477.1</ele><time></time></trkpt>
        <trkpt lat="29.69051743" lon="104.62792969"><ele>473.6</ele><time></time></trkpt>
        <trkpt lat="29.69065666" lon="104.62779999"><ele>474.4</ele><time></time></trkpt>
        <trkpt lat="29.69083023" lon="104.62767792"><ele>473.5</ele><time></time></trkpt>
        <trkpt lat="29.69103813" lon="104.62762451"><ele>473.4</ele><time></time></trkpt>
        <trkpt lat="29.69129753" lon="104.62756348"><ele>485.3</ele><time></time></trkpt>
        <trkpt lat="29.69145966" lon="104.62746429"><ele>477.9</ele><time></time></trkpt>
        <trkpt lat="29.69162369" lon="104.62736511"><ele>471.8</ele><time></time></trkpt>
        <trkpt lat="29.69184494" lon="104.62731171"><ele>475.3</ele><time></time></trkpt>
        <trkpt lat="29.69203568" lon="104.6272583"><ele>479.8</ele><time></time></trkpt>
        <trkpt lat="29.69215012" lon="104.62713623"><ele>476.8</ele><time></time></trkpt>
        <trkpt lat="29.69214821" lon="104.6269455"><ele>475.3</ele><time></time></trkpt>
        <trkpt lat="29.692173" lon="104.62674713"><ele>473.5</ele><time></time></trkpt>
        <trkpt lat="29.69227028" lon="104.62654114"><ele>475.8</ele><time></time></trkpt>
        <trkpt lat="29.69239044" lon="104.62638092"><ele>477.2</ele><time></time></trkpt>
        <trkpt lat="29.69252396" lon="104.62628174"><ele>481.4</ele><time></time></trkpt>
        <trkpt lat="29.69270897" lon="104.6262207"><ele>483.2</ele><time></time></trkpt>
        <trkpt lat="29.69281769" lon="104.62610626"><ele>476.3</ele><time></time></trkpt>
        <trkpt lat="29.6929512" lon="104.62600708"><ele>477.1</ele><time></time></trkpt>
        <trkpt lat="29.69307518" lon="104.62593079"><ele>486.1</ele><time></time></trkpt>
        <trkpt lat="29.69320107" lon="104.62579346"><ele>480.7</ele><time></time></trkpt>
        <trkpt lat="29.69330215" lon="104.62565613"><ele>468.1</ele><time></time></trkpt>
        <trkpt lat="29.69343185" lon="104.62546539"><ele>469.7</ele><time></time></trkpt>
        <trkpt lat="29.69354057" lon="104.62534332"><ele>488.3</ele><time></time></trkpt>
        <trkpt lat="29.69374466" lon="104.62542725"><ele>513.1</ele><time></time></trkpt>
        <trkpt lat="29.69392204" lon="104.62552643"><ele>532.3</ele><time></time></trkpt>
        <trkpt lat="29.69409752" lon="104.62553406"><ele>538.8</ele><time></time></trkpt>
        <trkpt lat="29.69429016" lon="104.62554169"><ele>533</ele><time></time></trkpt>
        <trkpt lat="29.69428253" lon="104.62548065"><ele>522.2</ele><time></time></trkpt>
        <trkpt lat="29.69428062" lon="104.62548828"><ele>518</ele><time></time></trkpt>
        <trkpt lat="29.69433975" lon="104.62546539"><ele>523.5</ele><time></time></trkpt>
        <trkpt lat="29.69436073" lon="104.62546539"><ele>529</ele><time></time></trkpt>
        <trkpt lat="29.69435692" lon="104.62551117"><ele>533.2</ele><time></time></trkpt>
        <trkpt lat="29.69430161" lon="104.62548828"><ele>521.5</ele><time></time></trkpt>
        <trkpt lat="29.6943264" lon="104.62550354"><ele>520.3</ele><time></time></trkpt>
        <trkpt lat="29.69445229" lon="104.62560272"><ele>518.9</ele><time></time></trkpt>
        <trkpt lat="29.69454002" lon="104.62574005"><ele>515.7</ele><time></time></trkpt>
        <trkpt lat="29.69468307" lon="104.62587738"><ele>515.3</ele><time></time></trkpt>
        <trkpt lat="29.69481659" lon="104.62597656"><ele>514.2</ele><time></time></trkpt>
        <trkpt lat="29.69492912" lon="104.62602234"><ele>512.4</ele><time></time></trkpt>
        <trkpt lat="29.69503975" lon="104.62600708"><ele>506.4</ele><time></time></trkpt>
        <trkpt lat="29.69513893" lon="104.62605286"><ele>510.6</ele><time></time></trkpt>
        <trkpt lat="29.69508934" lon="104.62613678"><ele>510</ele><time></time></trkpt>
        <trkpt lat="29.69501877" lon="104.6262207"><ele>509.4</ele><time></time></trkpt>
        <trkpt lat="29.69498062" lon="104.626297"><ele>507.8</ele><time></time></trkpt>
        <trkpt lat="29.69495201" lon="104.62641144"><ele>506.8</ele><time></time></trkpt>
        <trkpt lat="29.69494629" lon="104.62654114"><ele>508.2</ele><time></time></trkpt>
        <trkpt lat="29.69494057" lon="104.6265564"><ele>506.9</ele><time></time></trkpt>
        <trkpt lat="29.69493484" lon="104.62669373"><ele>510.2</ele><time></time></trkpt>
        <trkpt lat="29.69484901" lon="104.62670898"><ele>513.3</ele><time></time></trkpt>
        <trkpt lat="29.69480133" lon="104.6268158"><ele>517.3</ele><time></time></trkpt>
        <trkpt lat="29.69479179" lon="104.62688446"><ele>520.9</ele><time></time></trkpt>
        <trkpt lat="29.69484901" lon="104.62696075"><ele>528.4</ele><time></time></trkpt>
        <trkpt lat="29.69487572" lon="104.62700653"><ele>530.1</ele><time></time></trkpt>
        <trkpt lat="29.69491196" lon="104.62709808"><ele>534.7</ele><time></time></trkpt>
        <trkpt lat="29.69489098" lon="104.62709808"><ele>533.8</ele><time></time></trkpt>
        <trkpt lat="29.6948719" lon="104.62712097"><ele>536</ele><time></time></trkpt>
        <trkpt lat="29.69485855" lon="104.62718201"><ele>534.4</ele><time></time></trkpt>
        <trkpt lat="29.69485855" lon="104.62722015"><ele>536.1</ele><time></time></trkpt>
        <trkpt lat="29.69487381" lon="104.6272583"><ele>539.8</ele><time></time></trkpt>
        <trkpt lat="29.69481277" lon="104.62726593"><ele>537.7</ele><time></time></trkpt>
        <trkpt lat="29.6948185" lon="104.62729645"><ele>542.6</ele><time></time></trkpt>
        <trkpt lat="29.69481468" lon="104.62734985"><ele>547.8</ele><time></time></trkpt>
        <trkpt lat="29.69482231" lon="104.62739563"><ele>552.5</ele><time></time></trkpt>
        <trkpt lat="29.69485474" lon="104.62744141"><ele>553.4</ele><time></time></trkpt>
        <trkpt lat="29.69486427" lon="104.62755585"><ele>552.4</ele><time></time></trkpt>
        <trkpt lat="29.69487572" lon="104.62766266"><ele>559.5</ele><time></time></trkpt>
        <trkpt lat="29.69480705" lon="104.62773132"><ele>560.8</ele><time></time></trkpt>
        <trkpt lat="29.69473267" lon="104.62778473"><ele>564.6</ele><time></time></trkpt>
        <trkpt lat="29.69462013" lon="104.62786865"><ele>564.2</ele><time></time></trkpt>
        <trkpt lat="29.69449997" lon="104.62793732"><ele>560.7</ele><time></time></trkpt>
        <trkpt lat="29.69442368" lon="104.62802124"><ele>560.6</ele><time></time></trkpt>
        <trkpt lat="29.69438362" lon="104.62813568"><ele>561.6</ele><time></time></trkpt>
        <trkpt lat="29.69438171" lon="104.62819672"><ele>562.9</ele><time></time></trkpt>
        <trkpt lat="29.69433022" lon="104.62825012"><ele>564</ele><time></time></trkpt>
        <trkpt lat="29.69438171" lon="104.62828827"><ele>562.3</ele><time></time></trkpt>
        <trkpt lat="29.69444275" lon="104.62832642"><ele>560</ele><time></time></trkpt>
        <trkpt lat="29.69446945" lon="104.62834167"><ele>556.7</ele><time></time></trkpt>
        <trkpt lat="29.69450951" lon="104.62833405"><ele>555.5</ele><time></time></trkpt>
        <trkpt lat="29.69453239" lon="104.62838745"><ele>553.4</ele><time></time></trkpt>
        <trkpt lat="29.69464874" lon="104.62835693"><ele>552.7</ele><time></time></trkpt>
        <trkpt lat="29.69475937" lon="104.62835693"><ele>552.1</ele><time></time></trkpt>
        <trkpt lat="29.69484711" lon="104.62843323"><ele>553.2</ele><time></time></trkpt>
        <trkpt lat="29.6948967" lon="104.6285553"><ele>556</ele><time></time></trkpt>
        <trkpt lat="29.69490242" lon="104.62861633"><ele>553.6</ele><time></time></trkpt>
        <trkpt lat="29.69489098" lon="104.62872314"><ele>551.7</ele><time></time></trkpt>
        <trkpt lat="29.69491005" lon="104.62880707"><ele>553.2</ele><time></time></trkpt>
        <trkpt lat="29.69494629" lon="104.62886047"><ele>554.2</ele><time></time></trkpt>
        <trkpt lat="29.69501114" lon="104.62890625"><ele>559</ele><time></time></trkpt>
        <trkpt lat="29.69509888" lon="104.62897491"><ele>558.8</ele><time></time></trkpt>
        <trkpt lat="29.69512558" lon="104.62905884"><ele>560.4</ele><time></time></trkpt>
        <trkpt lat="29.69515419" lon="104.6291275"><ele>570.2</ele><time></time></trkpt>
        <trkpt lat="29.69514275" lon="104.62915039"><ele>567.5</ele><time></time></trkpt>
        <trkpt lat="29.69514847" lon="104.62942505"><ele>559.5</ele><time></time></trkpt>
        <trkpt lat="29.69517517" lon="104.62942505"><ele>558.8</ele><time></time></trkpt>
        <trkpt lat="29.69521332" lon="104.62940216"><ele>559.5</ele><time></time></trkpt>
        <trkpt lat="29.69528198" lon="104.62937927"><ele>559.2</ele><time></time></trkpt>
        <trkpt lat="29.69534874" lon="104.62940979"><ele>556.5</ele><time></time></trkpt>
        <trkpt lat="29.69538879" lon="104.62945557"><ele>557.4</ele><time></time></trkpt>
        <trkpt lat="29.69539642" lon="104.62949371"><ele>551.7</ele><time></time></trkpt>
        <trkpt lat="29.69540787" lon="104.62952423"><ele>553.7</ele><time></time></trkpt>
        <trkpt lat="29.69538498" lon="104.62962341"><ele>550.1</ele><time></time></trkpt>
        <trkpt lat="29.69543076" lon="104.62973785"><ele>550.5</ele><time></time></trkpt>
        <trkpt lat="29.69547272" lon="104.62979126"><ele>552.4</ele><time></time></trkpt>
        <trkpt lat="29.6954689" lon="104.62982941"><ele>553.1</ele><time></time></trkpt>
        <trkpt lat="29.69548798" lon="104.62989044"><ele>550.5</ele><time></time></trkpt>
        <trkpt lat="29.69548607" lon="104.62998962"><ele>546.5</ele><time></time></trkpt>
        <trkpt lat="29.69549751" lon="104.63005066"><ele>546.6</ele><time></time></trkpt>
        <trkpt lat="29.69558144" lon="104.63013458"><ele>547.2</ele><time></time></trkpt>
        <trkpt lat="29.69569397" lon="104.63018036"><ele>547.2</ele><time></time></trkpt>
        <trkpt lat="29.69582176" lon="104.63024139"><ele>549.2</ele><time></time></trkpt>
        <trkpt lat="29.69586182" lon="104.63032532"><ele>548.4</ele><time></time></trkpt>
        <trkpt lat="29.69585991" lon="104.63040161"><ele>549.8</ele><time></time></trkpt>
        <trkpt lat="29.6958313" lon="104.63050842"><ele>547.5</ele><time></time></trkpt>
        <trkpt lat="29.6958313" lon="104.63050079"><ele>548.5</ele><time></time></trkpt>
        <trkpt lat="29.69576263" lon="104.63052368"><ele>549</ele><time></time></trkpt>
        <trkpt lat="29.69575119" lon="104.63059235"><ele>551.7</ele><time></time></trkpt>
        <trkpt lat="29.69575882" lon="104.6306839"><ele>553</ele><time></time></trkpt>
        <trkpt lat="29.69575882" lon="104.63069153"><ele>553.3</ele><time></time></trkpt>
        <trkpt lat="29.69578171" lon="104.63063049"><ele>549.7</ele><time></time></trkpt>
        <trkpt lat="29.69578934" lon="104.63061523"><ele>549.3</ele><time></time></trkpt>
        <trkpt lat="29.69581032" lon="104.63069916"><ele>548.1</ele><time></time></trkpt>
        <trkpt lat="29.69581985" lon="104.63075256"><ele>547.3</ele><time></time></trkpt>
        <trkpt lat="29.69587135" lon="104.63078308"><ele>549.7</ele><time></time></trkpt>
        <trkpt lat="29.69592667" lon="104.63082886"><ele>549</ele><time></time></trkpt>
        <trkpt lat="29.69595909" lon="104.63098145"><ele>547.8</ele><time></time></trkpt>
        <trkpt lat="29.69600677" lon="104.63110352"><ele>552.7</ele><time></time></trkpt>
        <trkpt lat="29.6960125" lon="104.63119507"><ele>557.5</ele><time></time></trkpt>
        <trkpt lat="29.69599342" lon="104.63128662"><ele>557.7</ele><time></time></trkpt>
        <trkpt lat="29.69592667" lon="104.63128662"><ele>554.9</ele><time></time></trkpt>
        <trkpt lat="29.69593239" lon="104.63118744"><ele>552.9</ele><time></time></trkpt>
        <trkpt lat="29.69590569" lon="104.63108063"><ele>552.2</ele><time></time></trkpt>
        <trkpt lat="29.69585228" lon="104.63101196"><ele>554.9</ele><time></time></trkpt>
        <trkpt lat="29.69581032" lon="104.6309967"><ele>553.8</ele><time></time></trkpt>
        <trkpt lat="29.69568062" lon="104.63108063"><ele>572.1</ele><time></time></trkpt>
        <trkpt lat="29.69576073" lon="104.6311264"><ele>570.4</ele><time></time></trkpt>
        <trkpt lat="29.6958313" lon="104.63121796"><ele>571</ele><time></time></trkpt>
        <trkpt lat="29.69584656" lon="104.6313324"><ele>568.9</ele><time></time></trkpt>
        <trkpt lat="29.69582367" lon="104.63141632"><ele>563.6</ele><time></time></trkpt>
        <trkpt lat="29.69570732" lon="104.63144684"><ele>556.8</ele><time></time></trkpt>
        <trkpt lat="29.69557381" lon="104.63140869"><ele>549.2</ele><time></time></trkpt>
        <trkpt lat="29.69548607" lon="104.63145447"><ele>551.7</ele><time></time></trkpt>
        <trkpt lat="29.69538116" lon="104.63143158"><ele>550.4</ele><time></time></trkpt>
        <trkpt lat="29.69538307" lon="104.63140106"><ele>552.2</ele><time></time></trkpt>
        <trkpt lat="29.6952858" lon="104.6312561"><ele>554.3</ele><time></time></trkpt>
        <trkpt lat="29.69519806" lon="104.63116455"><ele>554.8</ele><time></time></trkpt>
        <trkpt lat="29.69520378" lon="104.6311264"><ele>554.5</ele><time></time></trkpt>
        <trkpt lat="29.69513893" lon="104.63105011"><ele>555.4</ele><time></time></trkpt>
        <trkpt lat="29.69507027" lon="104.6309967"><ele>556.2</ele><time></time></trkpt>
        <trkpt lat="29.69498825" lon="104.63091278"><ele>557.5</ele><time></time></trkpt>
        <trkpt lat="29.69491005" lon="104.63083649"><ele>556.3</ele><time></time></trkpt>
        <trkpt lat="29.69485474" lon="104.63072205"><ele>556.6</ele><time></time></trkpt>
        <trkpt lat="29.69482994" lon="104.63066101"><ele>555.7</ele><time></time></trkpt>
        <trkpt lat="29.69480133" lon="104.63059235"><ele>558.8</ele><time></time></trkpt>
        <trkpt lat="29.69476318" lon="104.63059235"><ele>557.7</ele><time></time></trkpt>
        <trkpt lat="29.6947155" lon="104.63066101"><ele>559.5</ele><time></time></trkpt>
        <trkpt lat="29.69467545" lon="104.63072968"><ele>559.7</ele><time></time></trkpt>
        <trkpt lat="29.69464302" lon="104.63072968"><ele>562.8</ele><time></time></trkpt>
        <trkpt lat="29.69459724" lon="104.63064575"><ele>560.7</ele><time></time></trkpt>
        <trkpt lat="29.69454765" lon="104.63056946"><ele>562.2</ele><time></time></trkpt>
        <trkpt lat="29.69447899" lon="104.63050842"><ele>560.6</ele><time></time></trkpt>
        <trkpt lat="29.69439316" lon="104.63053131"><ele>561.8</ele><time></time></trkpt>
        <trkpt lat="29.69431114" lon="104.63065338"><ele>565.3</ele><time></time></trkpt>
        <trkpt lat="29.69430351" lon="104.6307373"><ele>563.8</ele><time></time></trkpt>
        <trkpt lat="29.69425011" lon="104.63082123"><ele>564.2</ele><time></time></trkpt>
        <trkpt lat="29.69432259" lon="104.63076019"><ele>566.2</ele><time></time></trkpt>
        <trkpt lat="29.69434738" lon="104.63082886"><ele>565.6</ele><time></time></trkpt>
        <trkpt lat="29.6943264" lon="104.6309433"><ele>568.2</ele><time></time></trkpt>
        <trkpt lat="29.69429016" lon="104.63096619"><ele>570.9</ele><time></time></trkpt>
        <trkpt lat="29.69435692" lon="104.63108063"><ele>569.2</ele><time></time></trkpt>
        <trkpt lat="29.69440651" lon="104.6312027"><ele>567.9</ele><time></time></trkpt>
        <trkpt lat="29.69445992" lon="104.63137054"><ele>568</ele><time></time></trkpt>
        <trkpt lat="29.69448662" lon="104.63143158"><ele>567.7</ele><time></time></trkpt>
        <trkpt lat="29.69446373" lon="104.63140106"><ele>567.2</ele><time></time></trkpt>
        <trkpt lat="29.69436264" lon="104.63143921"><ele>568.6</ele><time></time></trkpt>
        <trkpt lat="29.69432068" lon="104.63153839"><ele>570.3</ele><time></time></trkpt>
        <trkpt lat="29.69426727" lon="104.63158417"><ele>572.9</ele><time></time></trkpt>
        <trkpt lat="29.69417381" lon="104.63152313"><ele>576.7</ele><time></time></trkpt>
        <trkpt lat="29.69408989" lon="104.6315155"><ele>579</ele><time></time></trkpt>
        <trkpt lat="29.6939888" lon="104.6315155"><ele>581.9</ele><time></time></trkpt>
        <trkpt lat="29.69404411" lon="104.63160706"><ele>582.5</ele><time></time></trkpt>
        <trkpt lat="29.69408989" lon="104.63163757"><ele>582.7</ele><time></time></trkpt>
        <trkpt lat="29.6941452" lon="104.63169861"><ele>583.6</ele><time></time></trkpt>
        <trkpt lat="29.69422722" lon="104.63175964"><ele>587.1</ele><time></time></trkpt>
        <trkpt lat="29.69421768" lon="104.63174438"><ele>587.6</ele><time></time></trkpt>
        <trkpt lat="29.69416428" lon="104.63169098"><ele>587.2</ele><time></time></trkpt>
        <trkpt lat="29.69412804" lon="104.63166046"><ele>587</ele><time></time></trkpt>
        <trkpt lat="29.69403648" lon="104.63158417"><ele>584.8</ele><time></time></trkpt>
        <trkpt lat="29.69400597" lon="104.63153839"><ele>581.7</ele><time></time></trkpt>
        <trkpt lat="29.69390488" lon="104.63147736"><ele>581.1</ele><time></time></trkpt>
        <trkpt lat="29.69379807" lon="104.6313324"><ele>580.8</ele><time></time></trkpt>
        <trkpt lat="29.69362068" lon="104.63122559"><ele>578.3</ele><time></time></trkpt>
        <trkpt lat="29.6934185" lon="104.6312561"><ele>576.5</ele><time></time></trkpt>
        <trkpt lat="29.69325829" lon="104.63122559"><ele>574.5</ele><time></time></trkpt>
        <trkpt lat="29.69313622" lon="104.6312027"><ele>575</ele><time></time></trkpt>
        <trkpt lat="29.69299507" lon="104.63121796"><ele>576.8</ele><time></time></trkpt>
        <trkpt lat="29.69286156" lon="104.63131714"><ele>578.1</ele><time></time></trkpt>
        <trkpt lat="29.69273186" lon="104.63141632"><ele>576.9</ele><time></time></trkpt>
        <trkpt lat="29.69265175" lon="104.63150787"><ele>576.6</ele><time></time></trkpt>
        <trkpt lat="29.69262886" lon="104.63161469"><ele>574.2</ele><time></time></trkpt>
        <trkpt lat="29.69265938" lon="104.63169861"><ele>575</ele><time></time></trkpt>
        <trkpt lat="29.6926651" lon="104.63175964"><ele>581.9</ele><time></time></trkpt>
        <trkpt lat="29.69262505" lon="104.63166046"><ele>583.2</ele><time></time></trkpt>
        <trkpt lat="29.69265556" lon="104.63155365"><ele>582.6</ele><time></time></trkpt>
        <trkpt lat="29.69274712" lon="104.6314621"><ele>579.9</ele><time></time></trkpt>
        <trkpt lat="29.69286728" lon="104.63132477"><ele>579.1</ele><time></time></trkpt>
        <trkpt lat="29.69306564" lon="104.63122559"><ele>580.2</ele><time></time></trkpt>
        <trkpt lat="29.69322968" lon="104.63121033"><ele>582.5</ele><time></time></trkpt>
        <trkpt lat="29.69337273" lon="104.63128662"><ele>582.8</ele><time></time></trkpt>
        <trkpt lat="29.69350815" lon="104.63127899"><ele>584.3</ele><time></time></trkpt>
        <trkpt lat="29.69356537" lon="104.63127899"><ele>586.4</ele><time></time></trkpt>
        <trkpt lat="29.69373131" lon="104.63130188"><ele>584.3</ele><time></time></trkpt>
        <trkpt lat="29.69383621" lon="104.63143158"><ele>586.4</ele><time></time></trkpt>
        <trkpt lat="29.69393539" lon="104.63152313"><ele>585.8</ele><time></time></trkpt>
        <trkpt lat="29.69400406" lon="104.63168335"><ele>586.5</ele><time></time></trkpt>
        <trkpt lat="29.69407082" lon="104.63182831"><ele>583.3</ele><time></time></trkpt>
        <trkpt lat="29.69419289" lon="104.63196564"><ele>581.8</ele><time></time></trkpt>
        <trkpt lat="29.6943531" lon="104.63202667"><ele>582.3</ele><time></time></trkpt>
        <trkpt lat="29.69450378" lon="104.63210297"><ele>585.8</ele><time></time></trkpt>
        <trkpt lat="29.69461441" lon="104.63212585"><ele>588.4</ele><time></time></trkpt>
        <trkpt lat="29.69470406" lon="104.63221741"><ele>591.4</ele><time></time></trkpt>
        <trkpt lat="29.69476128" lon="104.63234711"><ele>595.2</ele><time></time></trkpt>
        <trkpt lat="29.69480705" lon="104.63248444"><ele>596.9</ele><time></time></trkpt>
        <trkpt lat="29.69481468" lon="104.63262939"><ele>596.8</ele><time></time></trkpt>
        <trkpt lat="29.69482803" lon="104.63275146"><ele>601.3</ele><time></time></trkpt>
        <trkpt lat="29.69482231" lon="104.63288879"><ele>600.9</ele><time></time></trkpt>
        <trkpt lat="29.69488525" lon="104.63304901"><ele>597.8</ele><time></time></trkpt>
        <trkpt lat="29.69499397" lon="104.63311768"><ele>595.3</ele><time></time></trkpt>
        <trkpt lat="29.69506073" lon="104.63320923"><ele>603.5</ele><time></time></trkpt>
        <trkpt lat="29.6951828" lon="104.63343048"><ele>599.2</ele><time></time></trkpt>
        <trkpt lat="29.69524765" lon="104.63358307"><ele>598</ele><time></time></trkpt>
        <trkpt lat="29.69519043" lon="104.63375092"><ele>599.5</ele><time></time></trkpt>
        <trkpt lat="29.69509125" lon="104.63387299"><ele>604.8</ele><time></time></trkpt>
        <trkpt lat="29.69515991" lon="104.63407898"><ele>590.1</ele><time></time></trkpt>
        <trkpt lat="29.69519043" lon="104.63425446"><ele>580.7</ele><time></time></trkpt>
        <trkpt lat="29.69520378" lon="104.63449097"><ele>577</ele><time></time></trkpt>
        <trkpt lat="29.69517708" lon="104.63458252"><ele>575.3</ele><time></time></trkpt>
        <trkpt lat="29.69508362" lon="104.63471222"><ele>574.7</ele><time></time></trkpt>
        <trkpt lat="29.69505882" lon="104.63475037"><ele>576.5</ele><time></time></trkpt>
        <trkpt lat="29.69493675" lon="104.63486481"><ele>574.6</ele><time></time></trkpt>
        <trkpt lat="29.69486809" lon="104.6350708"><ele>569.8</ele><time></time></trkpt>
        <trkpt lat="29.69482231" lon="104.63516235"><ele>567.8</ele><time></time></trkpt>
        <trkpt lat="29.69470978" lon="104.63529968"><ele>561.8</ele><time></time></trkpt>
        <trkpt lat="29.69451523" lon="104.63539124"><ele>561.5</ele><time></time></trkpt>
        <trkpt lat="29.69439507" lon="104.6353302"><ele>561.8</ele><time></time></trkpt>
        <trkpt lat="29.69439888" lon="104.63542175"><ele>561.1</ele><time></time></trkpt>
        <trkpt lat="29.69430733" lon="104.63555908"><ele>558.9</ele><time></time></trkpt>
        <trkpt lat="29.69427681" lon="104.63563538"><ele>560.2</ele><time></time></trkpt>
        <trkpt lat="29.69422531" lon="104.63568115"><ele>556.6</ele><time></time></trkpt>
        <trkpt lat="29.69417572" lon="104.6357193"><ele>556.9</ele><time></time></trkpt>
        <trkpt lat="29.69411278" lon="104.63580322"><ele>559</ele><time></time></trkpt>
        <trkpt lat="29.69417" lon="104.63584137"><ele>564</ele><time></time></trkpt>
        <trkpt lat="29.69423294" lon="104.63587952"><ele>566.5</ele><time></time></trkpt>
        <trkpt lat="29.69427872" lon="104.63582611"><ele>564.4</ele><time></time></trkpt>
        <trkpt lat="29.69428825" lon="104.6357193"><ele>560.3</ele><time></time></trkpt>
        <trkpt lat="29.69432259" lon="104.63560486"><ele>557.8</ele><time></time></trkpt>
        <trkpt lat="29.69441986" lon="104.6354599"><ele>560.5</ele><time></time></trkpt>
        <trkpt lat="29.69450951" lon="104.63542938"><ele>563.3</ele><time></time></trkpt>
        <trkpt lat="29.69457245" lon="104.63545227"><ele>564</ele><time></time></trkpt>
        <trkpt lat="29.69456482" lon="104.63555908"><ele>564.8</ele><time></time></trkpt>
        <trkpt lat="29.69456863" lon="104.63555908"><ele>562.3</ele><time></time></trkpt>
        <trkpt lat="29.69462776" lon="104.63560486"><ele>560.9</ele><time></time></trkpt>
        <trkpt lat="29.69470024" lon="104.63556671"><ele>557.5</ele><time></time></trkpt>
        <trkpt lat="29.69476318" lon="104.63550568"><ele>557.3</ele><time></time></trkpt>
        <trkpt lat="29.69481087" lon="104.63543701"><ele>558</ele><time></time></trkpt>
        <trkpt lat="29.69491577" lon="104.63531494"><ele>557.3</ele><time></time></trkpt>
        <trkpt lat="29.69499969" lon="104.63527679"><ele>562.8</ele><time></time></trkpt>
        <trkpt lat="29.69504166" lon="104.63531494"><ele>563</ele><time></time></trkpt>
        <trkpt lat="29.69506836" lon="104.63541412"><ele>559.3</ele><time></time></trkpt>
        <trkpt lat="29.6951046" lon="104.63549805"><ele>563</ele><time></time></trkpt>
        <trkpt lat="29.69512177" lon="104.63557434"><ele>569.7</ele><time></time></trkpt>
        <trkpt lat="29.69515419" lon="104.63569641"><ele>562.4</ele><time></time></trkpt>
        <trkpt lat="29.69520569" lon="104.63578796"><ele>563.5</ele><time></time></trkpt>
        <trkpt lat="29.69529724" lon="104.63579559"><ele>561.7</ele><time></time></trkpt>
        <trkpt lat="29.69542122" lon="104.63572693"><ele>559.5</ele><time></time></trkpt>
        <trkpt lat="29.69551659" lon="104.63567352"><ele>561.4</ele><time></time></trkpt>
        <trkpt lat="29.69560623" lon="104.63560486"><ele>558.5</ele><time></time></trkpt>
        <trkpt lat="29.69571114" lon="104.63547516"><ele>560</ele><time></time></trkpt>
        <trkpt lat="29.69575119" lon="104.63538361"><ele>554.6</ele><time></time></trkpt>
        <trkpt lat="29.69578362" lon="104.63523102"><ele>549.3</ele><time></time></trkpt>
        <trkpt lat="29.6957798" lon="104.63505554"><ele>548.3</ele><time></time></trkpt>
        <trkpt lat="29.69585419" lon="104.63494873"><ele>548.8</ele><time></time></trkpt>
        <trkpt lat="29.69597054" lon="104.63495636"><ele>550.8</ele><time></time></trkpt>
        <trkpt lat="29.69610786" lon="104.63499451"><ele>551.1</ele><time></time></trkpt>
        <trkpt lat="29.69625854" lon="104.63497925"><ele>552.1</ele><time></time></trkpt>
        <trkpt lat="29.69629288" lon="104.6350174"><ele>552.3</ele><time></time></trkpt>
        <trkpt lat="29.69639015" lon="104.63505554"><ele>552.4</ele><time></time></trkpt>
        <trkpt lat="29.69644356" lon="104.6352005"><ele>550.9</ele><time></time></trkpt>
        <trkpt lat="29.696558" lon="104.63529205"><ele>550.2</ele><time></time></trkpt>
        <trkpt lat="29.69657326" lon="104.63531494"><ele>551.1</ele><time></time></trkpt>
        <trkpt lat="29.69668007" lon="104.63529968"><ele>545.9</ele><time></time></trkpt>
        <trkpt lat="29.69682884" lon="104.63537598"><ele>549.4</ele><time></time></trkpt>
        <trkpt lat="29.69699287" lon="104.63547516"><ele>555</ele><time></time></trkpt>
        <trkpt lat="29.6970768" lon="104.63562012"><ele>552.6</ele><time></time></trkpt>
        <trkpt lat="29.69701195" lon="104.63577271"><ele>550.8</ele><time></time></trkpt>
        <trkpt lat="29.69692421" lon="104.6359024"><ele>552</ele><time></time></trkpt>
        <trkpt lat="29.69688797" lon="104.63594818"><ele>550.6</ele><time></time></trkpt>
        <trkpt lat="29.6968956" lon="104.63595581"><ele>551.2</ele><time></time></trkpt>
        <trkpt lat="29.69682121" lon="104.63603973"><ele>545.7</ele><time></time></trkpt>
        <trkpt lat="29.69677925" lon="104.63616943"><ele>547.8</ele><time></time></trkpt>
        <trkpt lat="29.69680405" lon="104.63624573"><ele>549</ele><time></time></trkpt>
        <trkpt lat="29.69687271" lon="104.63633728"><ele>551.6</ele><time></time></trkpt>
        <trkpt lat="29.69698715" lon="104.63632965"><ele>550</ele><time></time></trkpt>
        <trkpt lat="29.69700813" lon="104.63623047"><ele>546.5</ele><time></time></trkpt>
        <trkpt lat="29.69694138" lon="104.63616943"><ele>547.2</ele><time></time></trkpt>
        <trkpt lat="29.69690895" lon="104.63612366"><ele>546.8</ele><time></time></trkpt>
        <trkpt lat="29.69688034" lon="104.63613892"><ele>549.6</ele><time></time></trkpt>
        <trkpt lat="29.69686699" lon="104.63618469"><ele>551</ele><time></time></trkpt>
        <trkpt lat="29.6968689" lon="104.63619995"><ele>552.3</ele><time></time></trkpt>
        <trkpt lat="29.69686127" lon="104.63618469"><ele>553.2</ele><time></time></trkpt>
        <trkpt lat="29.69695663" lon="104.63620758"><ele>554.5</ele><time></time></trkpt>
        <trkpt lat="29.69710732" lon="104.63621521"><ele>555.4</ele><time></time></trkpt>
        <trkpt lat="29.69722748" lon="104.6361618"><ele>556.7</ele><time></time></trkpt>
        <trkpt lat="29.69740486" lon="104.63614655"><ele>555.7</ele><time></time></trkpt>
        <trkpt lat="29.69762039" lon="104.63613892"><ele>552.8</ele><time></time></trkpt>
        <trkpt lat="29.69776154" lon="104.63625336"><ele>545.5</ele><time></time></trkpt>
        <trkpt lat="29.69779778" lon="104.63637543"><ele>544.2</ele><time></time></trkpt>
        <trkpt lat="29.69779205" lon="104.63642883"><ele>544.7</ele><time></time></trkpt>
        <trkpt lat="29.69771957" lon="104.6365509"><ele>545.2</ele><time></time></trkpt>
        <trkpt lat="29.69769669" lon="104.63658905"><ele>546.6</ele><time></time></trkpt>
        <trkpt lat="29.69764137" lon="104.63671875"><ele>546.4</ele><time></time></trkpt>
        <trkpt lat="29.69771957" lon="104.63683319"><ele>544.9</ele><time></time></trkpt>
        <trkpt lat="29.69790459" lon="104.63683319"><ele>542.2</ele><time></time></trkpt>
        <trkpt lat="29.69807243" lon="104.63683319"><ele>544.6</ele><time></time></trkpt>
        <trkpt lat="29.69822693" lon="104.63693237"><ele>542.6</ele><time></time></trkpt>
        <trkpt lat="29.69824219" lon="104.63713074"><ele>545</ele><time></time></trkpt>
        <trkpt lat="29.69813156" lon="104.63728333"><ele>546.9</ele><time></time></trkpt>
        <trkpt lat="29.69804382" lon="104.63746643"><ele>546.4</ele><time></time></trkpt>
        <trkpt lat="29.6980381" lon="104.63765717"><ele>547.3</ele><time></time></trkpt>
        <trkpt lat="29.69814301" lon="104.63778687"><ele>543.2</ele><time></time></trkpt>
        <trkpt lat="29.69831276" lon="104.63786316"><ele>542.5</ele><time></time></trkpt>
        <trkpt lat="29.69847488" lon="104.63793182"><ele>548.5</ele><time></time></trkpt>
        <trkpt lat="29.69862366" lon="104.63799286"><ele>552.2</ele><time></time></trkpt>
        <trkpt lat="29.69874191" lon="104.63802338"><ele>556.4</ele><time></time></trkpt>
        <trkpt lat="29.69889832" lon="104.63808441"><ele>556.8</ele><time></time></trkpt>
        <trkpt lat="29.69902992" lon="104.63818359"><ele>557.6</ele><time></time></trkpt>
        <trkpt lat="29.69914627" lon="104.63824463"><ele>560</ele><time></time></trkpt>
        <trkpt lat="29.69921112" lon="104.63825226"><ele>562.5</ele><time></time></trkpt>
        <trkpt lat="29.69934082" lon="104.63832855"><ele>563.9</ele><time></time></trkpt>
        <trkpt lat="29.69940376" lon="104.63834381"><ele>563.7</ele><time></time></trkpt>
        <trkpt lat="29.69953728" lon="104.63822937"><ele>556.4</ele><time></time></trkpt>
        <trkpt lat="29.6996212" lon="104.63803101"><ele>556</ele><time></time></trkpt>
        <trkpt lat="29.69967651" lon="104.63786316"><ele>556.1</ele><time></time></trkpt>
        <trkpt lat="29.69966888" lon="104.63771057"><ele>554.8</ele><time></time></trkpt>
        <trkpt lat="29.69970703" lon="104.63751984"><ele>552.8</ele><time></time></trkpt>
        <trkpt lat="29.6998539" lon="104.63744354"><ele>554</ele><time></time></trkpt>
        <trkpt lat="29.70002556" lon="104.63751221"><ele>551.3</ele><time></time></trkpt>
        <trkpt lat="29.70017624" lon="104.63747406"><ele>545</ele><time></time></trkpt>
        <trkpt lat="29.70031929" lon="104.63736725"><ele>540.4</ele><time></time></trkpt>
        <trkpt lat="29.70052338" lon="104.63728333"><ele>537</ele><time></time></trkpt>
        <trkpt lat="29.70072746" lon="104.63734436"><ele>535.7</ele><time></time></trkpt>
        <trkpt lat="29.70087242" lon="104.63739014"><ele>534.5</ele><time></time></trkpt>
        <trkpt lat="29.70095634" lon="104.63742828"><ele>532</ele><time></time></trkpt>
        <trkpt lat="29.70096016" lon="104.63743591"><ele>531</ele><time></time></trkpt>
        <trkpt lat="29.70099831" lon="104.63738251"><ele>529.1</ele><time></time></trkpt>
        <trkpt lat="29.70099449" lon="104.63745117"><ele>530.3</ele><time></time></trkpt>
        <trkpt lat="29.7010479" lon="104.63751984"><ele>528.3</ele><time></time></trkpt>
        <trkpt lat="29.70106125" lon="104.63757324"><ele>524.3</ele><time></time></trkpt>
        <trkpt lat="29.70112991" lon="104.63754272"><ele>520.2</ele><time></time></trkpt>
        <trkpt lat="29.70116997" lon="104.63757324"><ele>520.7</ele><time></time></trkpt>
        <trkpt lat="29.70125961" lon="104.63764191"><ele>521.1</ele><time></time></trkpt>
        <trkpt lat="29.70134544" lon="104.63776398"><ele>520.2</ele><time></time></trkpt>
        <trkpt lat="29.70135498" lon="104.63774109"><ele>519.2</ele><time></time></trkpt>
        <trkpt lat="29.70134163" lon="104.63768768"><ele>517.7</ele><time></time></trkpt>
        <trkpt lat="29.70137787" lon="104.63760376"><ele>511</ele><time></time></trkpt>
        <trkpt lat="29.70150375" lon="104.63750458"><ele>512.2</ele><time></time></trkpt>
        <trkpt lat="29.70157623" lon="104.6374588"><ele>519.5</ele><time></time></trkpt>
        <trkpt lat="29.70164108" lon="104.63743591"><ele>518.6</ele><time></time></trkpt>
        <trkpt lat="29.70176506" lon="104.63737488"><ele>519.1</ele><time></time></trkpt>
        <trkpt lat="29.70194817" lon="104.63729095"><ele>511.5</ele><time></time></trkpt>
        <trkpt lat="29.70206642" lon="104.63723755"><ele>514</ele><time></time></trkpt>
        <trkpt lat="29.70212555" lon="104.63725281"><ele>517.6</ele><time></time></trkpt>
        <trkpt lat="29.70222664" lon="104.63734436"><ele>515.9</ele><time></time></trkpt>
        <trkpt lat="29.70234871" lon="104.63743591"><ele>516</ele><time></time></trkpt>
        <trkpt lat="29.70246887" lon="104.63734436"><ele>517.6</ele><time></time></trkpt>
        <trkpt lat="29.70259857" lon="104.63722229"><ele>517.1</ele><time></time></trkpt>
        <trkpt lat="29.70258522" lon="104.63735199"><ele>524.6</ele><time></time></trkpt>
        <trkpt lat="29.70261955" lon="104.63745117"><ele>525.6</ele><time></time></trkpt>
        <trkpt lat="29.70271492" lon="104.63748169"><ele>526</ele><time></time></trkpt>
        <trkpt lat="29.70282555" lon="104.63748932"><ele>532.1</ele><time></time></trkpt>
        <trkpt lat="29.70300865" lon="104.63751221"><ele>528.2</ele><time></time></trkpt>
        <trkpt lat="29.70318031" lon="104.63755035"><ele>530.2</ele><time></time></trkpt>
        <trkpt lat="29.70337486" lon="104.63758087"><ele>532.5</ele><time></time></trkpt>
        <trkpt lat="29.70355034" lon="104.63766479"><ele>536.8</ele><time></time></trkpt>
        <trkpt lat="29.70367432" lon="104.63770294"><ele>542</ele><time></time></trkpt>
        <trkpt lat="29.703825" lon="104.63777924"><ele>546</ele><time></time></trkpt>
        <trkpt lat="29.70379639" lon="104.63790131"><ele>551.9</ele><time></time></trkpt>
        <trkpt lat="29.7036953" lon="104.63803101"><ele>557.6</ele><time></time></trkpt>
        <trkpt lat="29.70356941" lon="104.63813019"><ele>560.4</ele><time></time></trkpt>
        <trkpt lat="29.70358658" lon="104.63821411"><ele>553.8</ele><time></time></trkpt>
        <trkpt lat="29.70370293" lon="104.63816833"><ele>554.6</ele><time></time></trkpt>
        <trkpt lat="29.70380592" lon="104.6381073"><ele>560.5</ele><time></time></trkpt>
        <trkpt lat="29.70393753" lon="104.63800049"><ele>561.6</ele><time></time></trkpt>
        <trkpt lat="29.70406151" lon="104.63798523"><ele>566</ele><time></time></trkpt>
        <trkpt lat="29.70420456" lon="104.63789368"><ele>564.1</ele><time></time></trkpt>
        <trkpt lat="29.70423698" lon="104.63773346"><ele>562.5</ele><time></time></trkpt>
        <trkpt lat="29.70428658" lon="104.63755035"><ele>565.9</ele><time></time></trkpt>
        <trkpt lat="29.70440483" lon="104.63743591"><ele>565.9</ele><time></time></trkpt>
        <trkpt lat="29.70454979" lon="104.63731384"><ele>564.8</ele><time></time></trkpt>
        <trkpt lat="29.70472336" lon="104.63721466"><ele>565.9</ele><time></time></trkpt>
        <trkpt lat="29.70485306" lon="104.63735962"><ele>566.8</ele><time></time></trkpt>
        <trkpt lat="29.70494461" lon="104.63742065"><ele>567.7</ele><time></time></trkpt>
        <trkpt lat="29.70505714" lon="104.63749695"><ele>567.5</ele><time></time></trkpt>
        <trkpt lat="29.70508957" lon="104.63767242"><ele>567.9</ele><time></time></trkpt>
        <trkpt lat="29.70509911" lon="104.63770294"><ele>570.6</ele><time></time></trkpt>
        <trkpt lat="29.70513344" lon="104.63775635"><ele>571</ele><time></time></trkpt>
        <trkpt lat="29.70519829" lon="104.63782501"><ele>567.3</ele><time></time></trkpt>
        <trkpt lat="29.70531273" lon="104.63795471"><ele>567.7</ele><time></time></trkpt>
        <trkpt lat="29.70542145" lon="104.63813782"><ele>569.8</ele><time></time></trkpt>
        <trkpt lat="29.70552063" lon="104.63832855"><ele>569</ele><time></time></trkpt>
        <trkpt lat="29.70560074" lon="104.63852692"><ele>573.6</ele><time></time></trkpt>
        <trkpt lat="29.70579338" lon="104.63854218"><ele>572.1</ele><time></time></trkpt>
        <trkpt lat="29.70597076" lon="104.63856506"><ele>569.5</ele><time></time></trkpt>
        <trkpt lat="29.70613289" lon="104.63866425"><ele>565.6</ele><time></time></trkpt>
        <trkpt lat="29.70633698" lon="104.63869476"><ele>566</ele><time></time></trkpt>
        <trkpt lat="29.70649529" lon="104.6388092"><ele>569</ele><time></time></trkpt>
        <trkpt lat="29.70666885" lon="104.63890076"><ele>566.9</ele><time></time></trkpt>
        <trkpt lat="29.70680237" lon="104.63904572"><ele>561.1</ele><time></time></trkpt>
        <trkpt lat="29.70694351" lon="104.63916016"><ele>560.4</ele><time></time></trkpt>
        <trkpt lat="29.70711327" lon="104.63917542"><ele>556.1</ele><time></time></trkpt>
        <trkpt lat="29.70728683" lon="104.63915253"><ele>551.7</ele><time></time></trkpt>
        <trkpt lat="29.70746231" lon="104.63909912"><ele>555.1</ele><time></time></trkpt>
        <trkpt lat="29.7076416" lon="104.63908386"><ele>553.7</ele><time></time></trkpt>
        <trkpt lat="29.70782089" lon="104.63911438"><ele>552</ele><time></time></trkpt>
        <trkpt lat="29.70791054" lon="104.63930511"><ele>550.1</ele><time></time></trkpt>
        <trkpt lat="29.70808792" lon="104.63941193"><ele>543.1</ele><time></time></trkpt>
        <trkpt lat="29.70828629" lon="104.63938904"><ele>540.8</ele><time></time></trkpt>
        <trkpt lat="29.70838165" lon="104.63944244"><ele>548.4</ele><time></time></trkpt>
        <trkpt lat="29.70843124" lon="104.63948822"><ele>553.7</ele><time></time></trkpt>
        <trkpt lat="29.7085762" lon="104.6396637"><ele>549.4</ele><time></time></trkpt>
        <trkpt lat="29.7086525" lon="104.63977814"><ele>552.7</ele><time></time></trkpt>
        <trkpt lat="29.7087059" lon="104.6399231"><ele>554</ele><time></time></trkpt>
        <trkpt lat="29.70878601" lon="104.6400528"><ele>556.7</ele><time></time></trkpt>
        <trkpt lat="29.70892715" lon="104.64017487"><ele>559.3</ele><time></time></trkpt>
        <trkpt lat="29.70904541" lon="104.64022827"><ele>557.4</ele><time></time></trkpt>
        <trkpt lat="29.70914841" lon="104.64025879"><ele>556.8</ele><time></time></trkpt>
        <trkpt lat="29.70930099" lon="104.64019775"><ele>558</ele><time></time></trkpt>
        <trkpt lat="29.70939255" lon="104.64004517"><ele>556.5</ele><time></time></trkpt>
        <trkpt lat="29.70957375" lon="104.63999939"><ele>555.6</ele><time></time></trkpt>
        <trkpt lat="29.70965576" lon="104.64016724"><ele>554.5</ele><time></time></trkpt>
        <trkpt lat="29.70975113" lon="104.64035797"><ele>553</ele><time></time></trkpt>
        <trkpt lat="29.70989037" lon="104.64052582"><ele>548.6</ele><time></time></trkpt>
        <trkpt lat="29.71002769" lon="104.64069366"><ele>551.5</ele><time></time></trkpt>
        <trkpt lat="29.71015549" lon="104.64067078"><ele>553.1</ele><time></time></trkpt>
        <trkpt lat="29.71028137" lon="104.64051056"><ele>553.1</ele><time></time></trkpt>
        <trkpt lat="29.7104702" lon="104.64056396"><ele>551.8</ele><time></time></trkpt>
        <trkpt lat="29.71065712" lon="104.64056396"><ele>550.2</ele><time></time></trkpt>
        <trkpt lat="29.71084404" lon="104.6404953"><ele>547.3</ele><time></time></trkpt>
        <trkpt lat="29.71102905" lon="104.64053345"><ele>540.2</ele><time></time></trkpt>
        <trkpt lat="29.71119499" lon="104.64057922"><ele>539.9</ele><time></time></trkpt>
        <trkpt lat="29.71123695" lon="104.64059448"><ele>541.7</ele><time></time></trkpt>
        <trkpt lat="29.71129799" lon="104.64064789"><ele>542.8</ele><time></time></trkpt>
        <trkpt lat="29.71136665" lon="104.64070892"><ele>542.4</ele><time></time></trkpt>
        <trkpt lat="29.71142006" lon="104.64086151"><ele>536.9</ele><time></time></trkpt>
        <trkpt lat="29.71143723" lon="104.64108276"><ele>542.5</ele><time></time></trkpt>
        <trkpt lat="29.71147537" lon="104.64118195"><ele>545.5</ele><time></time></trkpt>
        <trkpt lat="29.71157265" lon="104.64128113"><ele>547.2</ele><time></time></trkpt>
        <trkpt lat="29.71172523" lon="104.64137268"><ele>543</ele><time></time></trkpt>
        <trkpt lat="29.71178436" lon="104.64155579"><ele>546.5</ele><time></time></trkpt>
        <trkpt lat="29.71189499" lon="104.6416626"><ele>547.6</ele><time></time></trkpt>
        <trkpt lat="29.71204185" lon="104.64175415"><ele>551.4</ele><time></time></trkpt>
        <trkpt lat="29.71220779" lon="104.64174652"><ele>544.7</ele><time></time></trkpt>
        <trkpt lat="29.71241951" lon="104.64168549"><ele>537.2</ele><time></time></trkpt>
        <trkpt lat="29.71253395" lon="104.64147186"><ele>544.2</ele><time></time></trkpt>
        <trkpt lat="29.71268654" lon="104.64133453"><ele>541.5</ele><time></time></trkpt>
        <trkpt lat="29.71288681" lon="104.64138794"><ele>539.1</ele><time></time></trkpt>
        <trkpt lat="29.71295929" lon="104.64150238"><ele>536</ele><time></time></trkpt>
        <trkpt lat="29.7130661" lon="104.64161682"><ele>536.1</ele><time></time></trkpt>
        <trkpt lat="29.71307182" lon="104.64177704"><ele>536.8</ele><time></time></trkpt>
        <trkpt lat="29.71297073" lon="104.641922"><ele>536.4</ele><time></time></trkpt>
        <trkpt lat="29.71292686" lon="104.64213562"><ele>536.7</ele><time></time></trkpt>
        <trkpt lat="29.71297646" lon="104.64232635"><ele>539.4</ele><time></time></trkpt>
        <trkpt lat="29.71303749" lon="104.6424408"><ele>537.6</ele><time></time></trkpt>
        <trkpt lat="29.7131176" lon="104.64250946"><ele>538.1</ele><time></time></trkpt>
        <trkpt lat="29.71326065" lon="104.6426239"><ele>540.6</ele><time></time></trkpt>
        <trkpt lat="29.71344948" lon="104.64272308"><ele>534.6</ele><time></time></trkpt>
        <trkpt lat="29.71348763" lon="104.64286041"><ele>536.3</ele><time></time></trkpt>
        <trkpt lat="29.71341896" lon="104.64297485"><ele>534.1</ele><time></time></trkpt>
        <trkpt lat="29.71343422" lon="104.64298248"><ele>534.8</ele><time></time></trkpt>
        <trkpt lat="29.71332932" lon="104.64309692"><ele>530</ele><time></time></trkpt>
        <trkpt lat="29.71322823" lon="104.64330292"><ele>532.4</ele><time></time></trkpt>
        <trkpt lat="29.71305275" lon="104.64338684"><ele>533.7</ele><time></time></trkpt>
        <trkpt lat="29.71304893" lon="104.64360809"><ele>530.3</ele><time></time></trkpt>
        <trkpt lat="29.71310043" lon="104.64379883"><ele>529.7</ele><time></time></trkpt>
        <trkpt lat="29.71322632" lon="104.64396667"><ele>526.3</ele><time></time></trkpt>
        <trkpt lat="29.71337128" lon="104.64406586"><ele>524.9</ele><time></time></trkpt>
        <trkpt lat="29.71354103" lon="104.64411926"><ele>521.7</ele><time></time></trkpt>
        <trkpt lat="29.71375465" lon="104.64418793"><ele>521.8</ele><time></time></trkpt>
        <trkpt lat="29.71395874" lon="104.64406586"><ele>523</ele><time></time></trkpt>
        <trkpt lat="29.71414948" lon="104.64411926"><ele>520.2</ele><time></time></trkpt>
        <trkpt lat="29.71424103" lon="104.64430237"><ele>523.8</ele><time></time></trkpt>
        <trkpt lat="29.71426773" lon="104.64451599"><ele>527.2</ele><time></time></trkpt>
        <trkpt lat="29.71431923" lon="104.64473724"><ele>521.5</ele><time></time></trkpt>
        <trkpt lat="29.71448708" lon="104.64485168"><ele>521.1</ele><time></time></trkpt>
        <trkpt lat="29.71461105" lon="104.64504242"><ele>523.8</ele><time></time></trkpt>
        <trkpt lat="29.71461868" lon="104.64512634"><ele>524.2</ele><time></time></trkpt>
        <trkpt lat="29.71460724" lon="104.64514923"><ele>525.6</ele><time></time></trkpt>
        <trkpt lat="29.71461487" lon="104.64521027"><ele>531.7</ele><time></time></trkpt>
        <trkpt lat="29.71455956" lon="104.64532471"><ele>531.8</ele><time></time></trkpt>
        <trkpt lat="29.71455765" lon="104.64544678"><ele>529.4</ele><time></time></trkpt>
        <trkpt lat="29.71456718" lon="104.64544678"><ele>526.7</ele><time></time></trkpt>
        <trkpt lat="29.71457863" lon="104.64556122"><ele>528.3</ele><time></time></trkpt>
        <trkpt lat="29.71458435" lon="104.64559174"><ele>524.8</ele><time></time></trkpt>
        <trkpt lat="29.71449089" lon="104.64565277"><ele>525.4</ele><time></time></trkpt>
        <trkpt lat="29.71443748" lon="104.64572144"><ele>519.9</ele><time></time></trkpt>
        <trkpt lat="29.71425629" lon="104.64578247"><ele>518.7</ele><time></time></trkpt>
        <trkpt lat="29.71411514" lon="104.64571381"><ele>518.1</ele><time></time></trkpt>
        <trkpt lat="29.71400833" lon="104.64561462"><ele>520.8</ele><time></time></trkpt>
        <trkpt lat="29.71396637" lon="104.64562225"><ele>522.8</ele><time></time></trkpt>
        <trkpt lat="29.71408844" lon="104.64572144"><ele>520</ele><time></time></trkpt>
        <trkpt lat="29.71424675" lon="104.6457901"><ele>519.4</ele><time></time></trkpt>
        <trkpt lat="29.71439552" lon="104.64576721"><ele>521.8</ele><time></time></trkpt>
        <trkpt lat="29.71441841" lon="104.64564514"><ele>523.8</ele><time></time></trkpt>
        <trkpt lat="29.71439934" lon="104.64557648"><ele>525.5</ele><time></time></trkpt>
        <trkpt lat="29.71439362" lon="104.64554596"><ele>525.4</ele><time></time></trkpt>
        <trkpt lat="29.71437263" lon="104.64552307"><ele>526.6</ele><time></time></trkpt>
        <trkpt lat="29.71438026" lon="104.6455307"><ele>529.7</ele><time></time></trkpt>
        <trkpt lat="29.71435547" lon="104.64550781"><ele>528.9</ele><time></time></trkpt>
        <trkpt lat="29.71430969" lon="104.64550781"><ele>531.2</ele><time></time></trkpt>
        <trkpt lat="29.71427536" lon="104.64546967"><ele>534.2</ele><time></time></trkpt>
        <trkpt lat="29.7142849" lon="104.64544678"><ele>537.3</ele><time></time></trkpt>
        <trkpt lat="29.71426392" lon="104.64544678"><ele>534.2</ele><time></time></trkpt>
        <trkpt lat="29.71429253" lon="104.64536285"><ele>540.9</ele><time></time></trkpt>
        <trkpt lat="29.71435928" lon="104.6453476"><ele>545.2</ele><time></time></trkpt>
        <trkpt lat="29.71440125" lon="104.64530945"><ele>547.3</ele><time></time></trkpt>
        <trkpt lat="29.71440697" lon="104.64526367"><ele>549.8</ele><time></time></trkpt>
        <trkpt lat="29.71443939" lon="104.64523315"><ele>556.1</ele><time></time></trkpt>
        <trkpt lat="29.71443939" lon="104.64517975"><ele>559.7</ele><time></time></trkpt>
        <trkpt lat="29.71439171" lon="104.64517975"><ele>562.2</ele><time></time></trkpt>
        <trkpt lat="29.71434593" lon="104.64516449"><ele>562.9</ele><time></time></trkpt>
        <trkpt lat="29.7142334" lon="104.64511108"><ele>565.8</ele><time></time></trkpt>
        <trkpt lat="29.7141571" lon="104.64501953"><ele>566.3</ele><time></time></trkpt>
        <trkpt lat="29.71408653" lon="104.64498901"><ele>570.2</ele><time></time></trkpt>
        <trkpt lat="29.71404839" lon="104.64500427"><ele>574.2</ele><time></time></trkpt>
        <trkpt lat="29.7140007" lon="104.64496613"><ele>574.1</ele><time></time></trkpt>
        <trkpt lat="29.71393585" lon="104.64488983"><ele>573.8</ele><time></time></trkpt>
        <trkpt lat="29.71389771" lon="104.64486694"><ele>577.5</ele><time></time></trkpt>
        <trkpt lat="29.71382141" lon="104.64483643"><ele>579.9</ele><time></time></trkpt>
        <trkpt lat="29.71374321" lon="104.64481354"><ele>581.4</ele><time></time></trkpt>
        <trkpt lat="29.71370888" lon="104.64482117"><ele>581.5</ele><time></time></trkpt>
        <trkpt lat="29.71367073" lon="104.64482117"><ele>581.2</ele><time></time></trkpt>
        <trkpt lat="29.71355057" lon="104.64476776"><ele>579.8</ele><time></time></trkpt>
        <trkpt lat="29.7134819" lon="104.64473724"><ele>578</ele><time></time></trkpt>
        <trkpt lat="29.71339607" lon="104.64472198"><ele>577.4</ele><time></time></trkpt>
        <trkpt lat="29.71337891" lon="104.64472198"><ele>579.1</ele><time></time></trkpt>
        <trkpt lat="29.7133007" lon="104.64471436"><ele>579</ele><time></time></trkpt>
        <trkpt lat="29.71326065" lon="104.64471436"><ele>579.2</ele><time></time></trkpt>
        <trkpt lat="29.71320724" lon="104.6446991"><ele>581.7</ele><time></time></trkpt>
        <trkpt lat="29.7131691" lon="104.64472961"><ele>585.6</ele><time></time></trkpt>
        <trkpt lat="29.71316528" lon="104.64472961"><ele>588.7</ele><time></time></trkpt>
        <trkpt lat="29.71313286" lon="104.64470673"><ele>585.3</ele><time></time></trkpt>
        <trkpt lat="29.71312332" lon="104.6446991"><ele>586.2</ele><time></time></trkpt>
        <trkpt lat="29.71313095" lon="104.64469147"><ele>587</ele><time></time></trkpt>
        <trkpt lat="29.71312714" lon="104.64469147"><ele>586.2</ele><time></time></trkpt>
        <trkpt lat="29.7131443" lon="104.64470673"><ele>584.4</ele><time></time></trkpt>
        <trkpt lat="29.7131443" lon="104.64471436"><ele>585.4</ele><time></time></trkpt>
        <trkpt lat="29.7131424" lon="104.64470673"><ele>585.6</ele><time></time></trkpt>
        <trkpt lat="29.71316528" lon="104.64472961"><ele>585.2</ele><time></time></trkpt>
        <trkpt lat="29.71318626" lon="104.64473724"><ele>587</ele><time></time></trkpt>
        <trkpt lat="29.71317863" lon="104.64474487"><ele>586.3</ele><time></time></trkpt>
        <trkpt lat="29.7131443" lon="104.64474487"><ele>583.3</ele><time></time></trkpt>
        <trkpt lat="29.71315956" lon="104.64471436"><ele>585.3</ele><time></time></trkpt>
        <trkpt lat="29.71317291" lon="104.6446991"><ele>588.3</ele><time></time></trkpt>
        <trkpt lat="29.7131691" lon="104.64470673"><ele>588.9</ele><time></time></trkpt>
        <trkpt lat="29.7131424" lon="104.64468384"><ele>585.5</ele><time></time></trkpt>
        <trkpt lat="29.7131443" lon="104.64468384"><ele>587.2</ele><time></time></trkpt>
        <trkpt lat="29.71312904" lon="104.64466858"><ele>586.1</ele><time></time></trkpt>
        <trkpt lat="29.71310616" lon="104.64466095"><ele>585.4</ele><time></time></trkpt>
        <trkpt lat="29.71308327" lon="104.64464569"><ele>587.6</ele><time></time></trkpt>
        <trkpt lat="29.71306038" lon="104.64464569"><ele>589</ele><time></time></trkpt>
        <trkpt lat="29.7130146" lon="104.64460754"><ele>592</ele><time></time></trkpt>
        <trkpt lat="29.71298599" lon="104.64456177"><ele>589.9</ele><time></time></trkpt>
        <trkpt lat="29.71295547" lon="104.64450836"><ele>593.1</ele><time></time></trkpt>
        <trkpt lat="29.71292877" lon="104.64444733"><ele>596.7</ele><time></time></trkpt>
        <trkpt lat="29.71260643" lon="104.64411163"><ele>596.8</ele><time></time></trkpt>
        <trkpt lat="29.71273041" lon="104.64334106"><ele>599.9</ele><time></time></trkpt>
        <trkpt lat="29.71280289" lon="104.64260864"><ele>606.7</ele><time></time></trkpt>
        <trkpt lat="29.71273422" lon="104.64251709"><ele>611.4</ele><time></time></trkpt>
        <trkpt lat="29.71271896" lon="104.64247894"><ele>661.7</ele><time></time></trkpt>
        <trkpt lat="29.71279716" lon="104.64273071"><ele>666.9</ele><time></time></trkpt>
        <trkpt lat="29.71297836" lon="104.64426422"><ele>614.9</ele><time></time></trkpt>
        <trkpt lat="29.71301079" lon="104.64442444"><ele>599.5</ele><time></time></trkpt>
        <trkpt lat="29.71303368" lon="104.6446991"><ele>581.6</ele><time></time></trkpt>
        <trkpt lat="29.71307564" lon="104.64467621"><ele>582</ele><time></time></trkpt>
        <trkpt lat="29.71311569" lon="104.64468384"><ele>585.2</ele><time></time></trkpt>
        <trkpt lat="29.71313858" lon="104.64471436"><ele>583.4</ele><time></time></trkpt>
        <trkpt lat="29.71313858" lon="104.64472961"><ele>585.4</ele><time></time></trkpt>
        <trkpt lat="29.71313286" lon="104.64472198"><ele>585.9</ele><time></time></trkpt>
        <trkpt lat="29.71312714" lon="104.6446991"><ele>587.3</ele><time></time></trkpt>
        <trkpt lat="29.71308708" lon="104.6446991"><ele>589.1</ele><time></time></trkpt>
        <trkpt lat="29.71305466" lon="104.6446991"><ele>592.6</ele><time></time></trkpt>
        <trkpt lat="29.71300316" lon="104.64469147"><ele>595.1</ele><time></time></trkpt>
        <trkpt lat="29.71291924" lon="104.64469147"><ele>597.8</ele><time></time></trkpt>
        <trkpt lat="29.71284866" lon="104.64469147"><ele>599.9</ele><time></time></trkpt>
        <trkpt lat="29.71278954" lon="104.6446991"><ele>600.4</ele><time></time></trkpt>
        <trkpt lat="29.7127037" lon="104.6446991"><ele>604.7</ele><time></time></trkpt>
        <trkpt lat="29.71260452" lon="104.64472961"><ele>605.9</ele><time></time></trkpt>
        <trkpt lat="29.71249962" lon="104.6447525"><ele>608.9</ele><time></time></trkpt>
        <trkpt lat="29.71240234" lon="104.64477539"><ele>612.1</ele><time></time></trkpt>
        <trkpt lat="29.71230507" lon="104.64480591"><ele>614.1</ele><time></time></trkpt>
        <trkpt lat="29.71221352" lon="104.64484406"><ele>618.5</ele><time></time></trkpt>
        <trkpt lat="29.71221542" lon="104.64496613"><ele>618.6</ele><time></time></trkpt>
        <trkpt lat="29.7122345" lon="104.6450882"><ele>617.7</ele><time></time></trkpt>
        <trkpt lat="29.71224976" lon="104.64517212"><ele>616</ele><time></time></trkpt>
        <trkpt lat="29.71226883" lon="104.64525604"><ele>614.8</ele><time></time></trkpt>
        <trkpt lat="29.71225929" lon="104.64529419"><ele>614.6</ele><time></time></trkpt>
        <trkpt lat="29.71225929" lon="104.64533234"><ele>614.2</ele><time></time></trkpt>
        <trkpt lat="29.71226501" lon="104.64536285"><ele>614.1</ele><time></time></trkpt>
        <trkpt lat="29.71227264" lon="104.64543152"><ele>612.7</ele><time></time></trkpt>
        <trkpt lat="29.71229172" lon="104.64546204"><ele>611.6</ele><time></time></trkpt>
        <trkpt lat="29.71231079" lon="104.64550018"><ele>611.5</ele><time></time></trkpt>
        <trkpt lat="29.71231842" lon="104.64556885"><ele>609.7</ele><time></time></trkpt>
        <trkpt lat="29.71235657" lon="104.64565277"><ele>608.6</ele><time></time></trkpt>
        <trkpt lat="29.71237946" lon="104.64569855"><ele>606.6</ele><time></time></trkpt>
        <trkpt lat="29.71239281" lon="104.64572906"><ele>606.7</ele><time></time></trkpt>
        <trkpt lat="29.71239471" lon="104.64575195"><ele>605.5</ele><time></time></trkpt>
        <trkpt lat="29.71245575" lon="104.64583588"><ele>606.1</ele><time></time></trkpt>
        <trkpt lat="29.71251678" lon="104.64594269"><ele>602.1</ele><time></time></trkpt>
        <trkpt lat="29.71258736" lon="104.64608002"><ele>604</ele><time></time></trkpt>
        <trkpt lat="29.71263123" lon="104.64615631"><ele>604.1</ele><time></time></trkpt>
        <trkpt lat="29.71267128" lon="104.64622498"><ele>607.4</ele><time></time></trkpt>
        <trkpt lat="29.71269798" lon="104.64632416"><ele>607.8</ele><time></time></trkpt>
        <trkpt lat="29.71271896" lon="104.64642334"><ele>604.9</ele><time></time></trkpt>
        <trkpt lat="29.71274757" lon="104.64655304"><ele>602.6</ele><time></time></trkpt>
        <trkpt lat="29.71276093" lon="104.64672089"><ele>599.1</ele><time></time></trkpt>
        <trkpt lat="29.71278191" lon="104.64678955"><ele>600.6</ele><time></time></trkpt>
        <trkpt lat="29.71278954" lon="104.64686584"><ele>598.5</ele><time></time></trkpt>
        <trkpt lat="29.71278954" lon="104.64694214"><ele>595.4</ele><time></time></trkpt>
        <trkpt lat="29.71280289" lon="104.64700317"><ele>593.1</ele><time></time></trkpt>
        <trkpt lat="29.71279907" lon="104.64704895"><ele>593.9</ele><time></time></trkpt>
        <trkpt lat="29.71279907" lon="104.64710236"><ele>593.3</ele><time></time></trkpt>
        <trkpt lat="29.71280289" lon="104.6470871"><ele>591.4</ele><time></time></trkpt>
        <trkpt lat="29.71281242" lon="104.64701843"><ele>590.4</ele><time></time></trkpt>
        <trkpt lat="29.71279716" lon="104.64700317"><ele>590.2</ele><time></time></trkpt>
        <trkpt lat="29.71277237" lon="104.64698029"><ele>589.7</ele><time></time></trkpt>
        <trkpt lat="29.71275711" lon="104.64697266"><ele>587</ele><time></time></trkpt>
        <trkpt lat="29.71272659" lon="104.6469574"><ele>587.9</ele><time></time></trkpt>
        <trkpt lat="29.71267319" lon="104.6469574"><ele>587.3</ele><time></time></trkpt>
        <trkpt lat="29.71262741" lon="104.64689636"><ele>585.9</ele><time></time></trkpt>
        <trkpt lat="29.71261215" lon="104.6468277"><ele>579.4</ele><time></time></trkpt>
        <trkpt lat="29.71256828" lon="104.64688873"><ele>576.2</ele><time></time></trkpt>
        <trkpt lat="29.71255112" lon="104.64690399"><ele>569.6</ele><time></time></trkpt>
        <trkpt lat="29.71250343" lon="104.64693451"><ele>563.3</ele><time></time></trkpt>
        <trkpt lat="29.7124691" lon="104.64696503"><ele>560.6</ele><time></time></trkpt>
        <trkpt lat="29.71244431" lon="104.64683533"><ele>557.4</ele><time></time></trkpt>
        <trkpt lat="29.71237755" lon="104.64669037"><ele>554.1</ele><time></time></trkpt>
        <trkpt lat="29.71229172" lon="104.64656067"><ele>552.8</ele><time></time></trkpt>
        <trkpt lat="29.71226501" lon="104.64649963"><ele>549.9</ele><time></time></trkpt>
        <trkpt lat="29.71222687" lon="104.64645386"><ele>547.5</ele><time></time></trkpt>
        <trkpt lat="29.7122097" lon="104.6464386"><ele>546.3</ele><time></time></trkpt>
        <trkpt lat="29.71222115" lon="104.64646149"><ele>547.2</ele><time></time></trkpt>
        <trkpt lat="29.71224213" lon="104.64650726"><ele>546.5</ele><time></time></trkpt>
        <trkpt lat="29.71222305" lon="104.64649963"><ele>545.1</ele><time></time></trkpt>
        <trkpt lat="29.71220589" lon="104.64648438"><ele>535.6</ele><time></time></trkpt>
        <trkpt lat="29.7122097" lon="104.64648438"><ele>537</ele><time></time></trkpt>
        <trkpt lat="29.71221352" lon="104.64648438"><ele>538.4</ele><time></time></trkpt>
        <trkpt lat="29.71220589" lon="104.64651489"><ele>539.8</ele><time></time></trkpt>
        <trkpt lat="29.71221161" lon="104.64653015"><ele>537.8</ele><time></time></trkpt>
        <trkpt lat="29.7122097" lon="104.64652252"><ele>542.3</ele><time></time></trkpt>
        <trkpt lat="29.71221352" lon="104.646492"><ele>539.3</ele><time></time></trkpt>
        <trkpt lat="29.71215057" lon="104.64641571"><ele>536.5</ele><time></time></trkpt>
        <trkpt lat="29.71212387" lon="104.64643097"><ele>531.9</ele><time></time></trkpt>
        <trkpt lat="29.71218109" lon="104.64649963"><ele>530.9</ele><time></time></trkpt>
        <trkpt lat="29.71224403" lon="104.64656067"><ele>535.4</ele><time></time></trkpt>
        <trkpt lat="29.71218872" lon="104.64646912"><ele>534.9</ele><time></time></trkpt>
        <trkpt lat="29.71210289" lon="104.6463089"><ele>534.2</ele><time></time></trkpt>
        <trkpt lat="29.71196938" lon="104.64617157"><ele>535.7</ele><time></time></trkpt>
        <trkpt lat="29.71187592" lon="104.64601898"><ele>538.6</ele><time></time></trkpt>
        <trkpt lat="29.71184158" lon="104.64588165"><ele>534.4</ele><time></time></trkpt>
        <trkpt lat="29.71182632" lon="104.64571381"><ele>535.5</ele><time></time></trkpt>
        <trkpt lat="29.71179771" lon="104.64557648"><ele>541.4</ele><time></time></trkpt>
        <trkpt lat="29.71179199" lon="104.64547729"><ele>544.4</ele><time></time></trkpt>
        <trkpt lat="29.71181488" lon="104.6453476"><ele>547.7</ele><time></time></trkpt>
        <trkpt lat="29.71180725" lon="104.64521027"><ele>547.7</ele><time></time></trkpt>
        <trkpt lat="29.71175957" lon="104.6450882"><ele>551.3</ele><time></time></trkpt>
        <trkpt lat="29.71164131" lon="104.64495087"><ele>546.6</ele><time></time></trkpt>
        <trkpt lat="29.71153259" lon="104.64479828"><ele>552.5</ele><time></time></trkpt>
        <trkpt lat="29.71143913" lon="104.64465332"><ele>547</ele><time></time></trkpt>
        <trkpt lat="29.71141815" lon="104.64450073"><ele>547.2</ele><time></time></trkpt>
        <trkpt lat="29.71144104" lon="104.64433289"><ele>547.1</ele><time></time></trkpt>
        <trkpt lat="29.71137238" lon="104.64414978"><ele>552.8</ele><time></time></trkpt>
        <trkpt lat="29.71125221" lon="104.64402771"><ele>549.2</ele><time></time></trkpt>
        <trkpt lat="29.71116829" lon="104.64385986"><ele>548.3</ele><time></time></trkpt>
        <trkpt lat="29.71105003" lon="104.64370728"><ele>550.1</ele><time></time></trkpt>
        <trkpt lat="29.71092606" lon="104.64351654"><ele>548.9</ele><time></time></trkpt>
        <trkpt lat="29.71076393" lon="104.64338684"><ele>550.6</ele><time></time></trkpt>
        <trkpt lat="29.7105732" lon="104.64324188"><ele>543.2</ele><time></time></trkpt>
        <trkpt lat="29.71051407" lon="104.64317322"><ele>548.1</ele><time></time></trkpt>
        <trkpt lat="29.71045494" lon="104.64311218"><ele>549</ele><time></time></trkpt>
        <trkpt lat="29.71034431" lon="104.64297485"><ele>543.6</ele><time></time></trkpt>
        <trkpt lat="29.71037102" lon="104.64280701"><ele>542.1</ele><time></time></trkpt>
        <trkpt lat="29.71053505" lon="104.64266968"><ele>545.8</ele><time></time></trkpt>
        <trkpt lat="29.71057129" lon="104.64246368"><ele>549.5</ele><time></time></trkpt>
        <trkpt lat="29.71056175" lon="104.64221191"><ele>555.7</ele><time></time></trkpt>
        <trkpt lat="29.71058083" lon="104.64200592"><ele>549.2</ele><time></time></trkpt>
        <trkpt lat="29.71054268" lon="104.64179993"><ele>552</ele><time></time></trkpt>
        <trkpt lat="29.71053505" lon="104.64154053"><ele>559.4</ele><time></time></trkpt>
        <trkpt lat="29.71042442" lon="104.64134216"><ele>559.2</ele><time></time></trkpt>
        <trkpt lat="29.71034622" lon="104.64122009"><ele>558.8</ele><time></time></trkpt>
        <trkpt lat="29.71028709" lon="104.64107513"><ele>556.2</ele><time></time></trkpt>
        <trkpt lat="29.71021271" lon="104.64090729"><ele>559.4</ele><time></time></trkpt>
        <trkpt lat="29.71012306" lon="104.64073944"><ele>559</ele><time></time></trkpt>
        <trkpt lat="29.71002579" lon="104.64060211"><ele>555.4</ele><time></time></trkpt>
        <trkpt lat="29.70997429" lon="104.64054108"><ele>552.4</ele><time></time></trkpt>
        <trkpt lat="29.70985603" lon="104.64039612"><ele>553.1</ele><time></time></trkpt>
        <trkpt lat="29.70978165" lon="104.64022827"><ele>550.9</ele><time></time></trkpt>
        <trkpt lat="29.70969391" lon="104.64002991"><ele>553.3</ele><time></time></trkpt>
        <trkpt lat="29.70965767" lon="104.64002228"><ele>553.4</ele><time></time></trkpt>
        <trkpt lat="29.70950699" lon="104.63996887"><ele>551.5</ele><time></time></trkpt>
        <trkpt lat="29.70937347" lon="104.64012909"><ele>548.1</ele><time></time></trkpt>
        <trkpt lat="29.70922089" lon="104.64025116"><ele>542.7</ele><time></time></trkpt>
        <trkpt lat="29.70905304" lon="104.64019012"><ele>541</ele><time></time></trkpt>
        <trkpt lat="29.70888138" lon="104.64006042"><ele>544</ele><time></time></trkpt>
        <trkpt lat="29.70877075" lon="104.63987732"><ele>547.9</ele><time></time></trkpt>
        <trkpt lat="29.70873451" lon="104.63985443"><ele>548.1</ele><time></time></trkpt>
        <trkpt lat="29.70879555" lon="104.64006805"><ele>543.8</ele><time></time></trkpt>
        <trkpt lat="29.70886612" lon="104.6402359"><ele>540.6</ele><time></time></trkpt>
        <trkpt lat="29.70894051" lon="104.64042664"><ele>538</ele><time></time></trkpt>
        <trkpt lat="29.70897675" lon="104.64070129"><ele>535.8</ele><time></time></trkpt>
        <trkpt lat="29.70916557" lon="104.6408844"><ele>536</ele><time></time></trkpt>
        <trkpt lat="29.70932579" lon="104.64104462"><ele>537</ele><time></time></trkpt>
        <trkpt lat="29.70932388" lon="104.64123535"><ele>532.9</ele><time></time></trkpt>
        <trkpt lat="29.70922089" lon="104.64136505"><ele>531.5</ele><time></time></trkpt>
        <trkpt lat="29.70906258" lon="104.6414566"><ele>526</ele><time></time></trkpt>
        <trkpt lat="29.7088871" lon="104.64141083"><ele>528.7</ele><time></time></trkpt>
        <trkpt lat="29.7087841" lon="104.6414566"><ele>528</ele><time></time></trkpt>
        <trkpt lat="29.70871925" lon="104.64142609"><ele>525.7</ele><time></time></trkpt>
        <trkpt lat="29.7086544" lon="104.64151001"><ele>520.2</ele><time></time></trkpt>
        <trkpt lat="29.70859909" lon="104.64157867"><ele>516.1</ele><time></time></trkpt>
        <trkpt lat="29.70859528" lon="104.64164734"><ele>515.6</ele><time></time></trkpt>
        <trkpt lat="29.70859337" lon="104.64176941"><ele>513.4</ele><time></time></trkpt>
        <trkpt lat="29.70851707" lon="104.64178467"><ele>515</ele><time></time></trkpt>
        <trkpt lat="29.70843697" lon="104.64178467"><ele>515.6</ele><time></time></trkpt>
        <trkpt lat="29.70833778" lon="104.64179993"><ele>511.8</ele><time></time></trkpt>
        <trkpt lat="29.70823288" lon="104.6418457"><ele>506.3</ele><time></time></trkpt>
        <trkpt lat="29.70817184" lon="104.64186096"><ele>502.5</ele><time></time></trkpt>
        <trkpt lat="29.7081089" lon="104.64186096"><ele>500</ele><time></time></trkpt>
        <trkpt lat="29.70806885" lon="104.64185333"><ele>499.7</ele><time></time></trkpt>
        <trkpt lat="29.70805931" lon="104.6417923"><ele>494.6</ele><time></time></trkpt>
        <trkpt lat="29.70798111" lon="104.64179993"><ele>496.3</ele><time></time></trkpt>
        <trkpt lat="29.70789719" lon="104.64179993"><ele>504.4</ele><time></time></trkpt>
        <trkpt lat="29.70787239" lon="104.64186096"><ele>498.6</ele><time></time></trkpt>
        <trkpt lat="29.70789528" lon="104.6419754"><ele>498.2</ele><time></time></trkpt>
        <trkpt lat="29.70788956" lon="104.64207458"><ele>508.3</ele><time></time></trkpt>
        <trkpt lat="29.70783615" lon="104.64208984"><ele>508.8</ele><time></time></trkpt>
        <trkpt lat="29.70776939" lon="104.64201355"><ele>496</ele><time></time></trkpt>
        <trkpt lat="29.70769882" lon="104.64216614"><ele>479.1</ele><time></time></trkpt>
        <trkpt lat="29.70769119" lon="104.64235687"><ele>477.9</ele><time></time></trkpt>
        <trkpt lat="29.70768738" lon="104.6424408"><ele>475</ele><time></time></trkpt>
        <trkpt lat="29.70767975" lon="104.64260101"><ele>475.5</ele><time></time></trkpt>
        <trkpt lat="29.70762825" lon="104.64276886"><ele>473</ele><time></time></trkpt>
        <trkpt lat="29.70759392" lon="104.64286804"><ele>475.1</ele><time></time></trkpt>
        <trkpt lat="29.70755959" lon="104.64299011"><ele>473.7</ele><time></time></trkpt>
        <trkpt lat="29.70753479" lon="104.64312744"><ele>471.8</ele><time></time></trkpt>
        <trkpt lat="29.70744705" lon="104.64326477"><ele>471.9</ele><time></time></trkpt>
        <trkpt lat="29.7073288" lon="104.64342499"><ele>473.5</ele><time></time></trkpt>
        <trkpt lat="29.7071991" lon="104.64349365"><ele>468.5</ele><time></time></trkpt>
        <trkpt lat="29.70711327" lon="104.64352417"><ele>471.8</ele><time></time></trkpt>
        <trkpt lat="29.70703506" lon="104.64354706"><ele>470.2</ele><time></time></trkpt>
        <trkpt lat="29.70696259" lon="104.6436615"><ele>470.8</ele><time></time></trkpt>
        <trkpt lat="29.70691299" lon="104.64383698"><ele>477.6</ele><time></time></trkpt>
        <trkpt lat="29.70680428" lon="104.64402008"><ele>481.9</ele><time></time></trkpt>
        <trkpt lat="29.70672798" lon="104.64419556"><ele>477.3</ele><time></time></trkpt>
        <trkpt lat="29.70669174" lon="104.64430237"><ele>474.6</ele><time></time></trkpt>
        <trkpt lat="29.70660782" lon="104.6444397"><ele>478</ele><time></time></trkpt>
        <trkpt lat="29.70652008" lon="104.64454651"><ele>478.1</ele><time></time></trkpt>
        <trkpt lat="29.70642281" lon="104.6446991"><ele>479.2</ele><time></time></trkpt>
        <trkpt lat="29.70632362" lon="104.64481354"><ele>482</ele><time></time></trkpt>
        <trkpt lat="29.70623589" lon="104.6448822"><ele>480.9</ele><time></time></trkpt>
        <trkpt lat="29.7061348" lon="104.64498901"><ele>477.4</ele><time></time></trkpt>
        <trkpt lat="29.70600128" lon="104.64507294"><ele>483.6</ele><time></time></trkpt>
        <trkpt lat="29.7058754" lon="104.6451416"><ele>489</ele><time></time></trkpt>
        <trkpt lat="29.70578003" lon="104.64515686"><ele>493</ele><time></time></trkpt>
        <trkpt lat="29.70569611" lon="104.64517975"><ele>492.1</ele><time></time></trkpt>
        <trkpt lat="29.70568275" lon="104.64530182"><ele>487.2</ele><time></time></trkpt>
        <trkpt lat="29.70567322" lon="104.64543915"><ele>483.7</ele><time></time></trkpt>
        <trkpt lat="29.70557022" lon="104.64553833"><ele>482.2</ele><time></time></trkpt>
        <trkpt lat="29.70552063" lon="104.64559174"><ele>480.4</ele><time></time></trkpt>
        <trkpt lat="29.70548248" lon="104.64565277"><ele>477.7</ele><time></time></trkpt>
        <trkpt lat="29.70549965" lon="104.64573669"><ele>476.9</ele><time></time></trkpt>
        <trkpt lat="29.70552063" lon="104.64576721"><ele>480.2</ele><time></time></trkpt>
        <trkpt lat="29.70565605" lon="104.64581299"><ele>480.7</ele><time></time></trkpt>
        <trkpt lat="29.70574951" lon="104.64585114"><ele>480.6</ele><time></time></trkpt>
        <trkpt lat="29.7058239" lon="104.64584351"><ele>476.9</ele><time></time></trkpt>
        <trkpt lat="29.70591736" lon="104.6459198"><ele>473.9</ele><time></time></trkpt>
        <trkpt lat="29.70599747" lon="104.64601135"><ele>476.6</ele><time></time></trkpt>
        <trkpt lat="29.70603943" lon="104.64601135"><ele>475.5</ele><time></time></trkpt>
        <trkpt lat="29.70608902" lon="104.64608002"><ele>472.9</ele><time></time></trkpt>
        <trkpt lat="29.70609474" lon="104.64616394"><ele>479</ele><time></time></trkpt>
        <trkpt lat="29.70615768" lon="104.64630127"><ele>464.9</ele><time></time></trkpt>
        <trkpt lat="29.70616722" lon="104.64644623"><ele>463.9</ele><time></time></trkpt>
        <trkpt lat="29.70614052" lon="104.64646912"><ele>462.4</ele><time></time></trkpt>
        <trkpt lat="29.70611763" lon="104.64658356"><ele>469.4</ele><time></time></trkpt>
        <trkpt lat="29.70606613" lon="104.64670563"><ele>475.3</ele><time></time></trkpt>
        <trkpt lat="29.70601463" lon="104.64680481"><ele>476.2</ele><time></time></trkpt>
        <trkpt lat="29.7060051" lon="104.64686584"><ele>479</ele><time></time></trkpt>
        <trkpt lat="29.70598793" lon="104.64689636"><ele>480.3</ele><time></time></trkpt>
        <trkpt lat="29.70590591" lon="104.64697266"><ele>482.6</ele><time></time></trkpt>
        <trkpt lat="29.70591354" lon="104.6470108"><ele>481.1</ele><time></time></trkpt>
        <trkpt lat="29.70578766" lon="104.64716339"><ele>480.7</ele><time></time></trkpt>
        <trkpt lat="29.7056427" lon="104.64729309"><ele>483.4</ele><time></time></trkpt>
        <trkpt lat="29.70548439" lon="104.64725494"><ele>482.3</ele><time></time></trkpt>
        <trkpt lat="29.70537949" lon="104.64728546"><ele>480.2</ele><time></time></trkpt>
        <trkpt lat="29.70526695" lon="104.64736176"><ele>477</ele><time></time></trkpt>
        <trkpt lat="29.70511818" lon="104.64743042"><ele>472.5</ele><time></time></trkpt>
        <trkpt lat="29.7049408" lon="104.64746094"><ele>469.1</ele><time></time></trkpt>
        <trkpt lat="29.70478058" lon="104.64753723"><ele>467.9</ele><time></time></trkpt>
        <trkpt lat="29.7046299" lon="104.64769745"><ele>468.5</ele><time></time></trkpt>
        <trkpt lat="29.70458221" lon="104.6478653"><ele>467.9</ele><time></time></trkpt>
        <trkpt lat="29.70466995" lon="104.64802551"><ele>451.7</ele><time></time></trkpt>
        <trkpt lat="29.70471001" lon="104.64822388"><ele>456.4</ele><time></time></trkpt>
        <trkpt lat="29.7047081" lon="104.64839935"><ele>463.5</ele><time></time></trkpt>
        <trkpt lat="29.70469475" lon="104.64851379"><ele>468.1</ele><time></time></trkpt>
        <trkpt lat="29.70458794" lon="104.64853668"><ele>484.8</ele><time></time></trkpt>
        <trkpt lat="29.70453644" lon="104.64840698"><ele>491.3</ele><time></time></trkpt>
        <trkpt lat="29.7044754" lon="104.64829254"><ele>512.4</ele><time></time></trkpt>
        <trkpt lat="29.70441818" lon="104.64817047"><ele>519.3</ele><time></time></trkpt>
        <trkpt lat="29.70443535" lon="104.64803314"><ele>516.8</ele><time></time></trkpt>
        <trkpt lat="29.70438194" lon="104.64791107"><ele>514.6</ele><time></time></trkpt>
        <trkpt lat="29.70433807" lon="104.64779663"><ele>509</ele><time></time></trkpt>
        <trkpt lat="29.7042942" lon="104.6476593"><ele>500.8</ele><time></time></trkpt>
        <trkpt lat="29.70417404" lon="104.64750671"><ele>474.5</ele><time></time></trkpt>
        <trkpt lat="29.70401955" lon="104.64746857"><ele>455.2</ele><time></time></trkpt>
        <trkpt lat="29.70387077" lon="104.64748383"><ele>445.3</ele><time></time></trkpt>
        <trkpt lat="29.70380402" lon="104.6474762"><ele>444.7</ele><time></time></trkpt>
        <trkpt lat="29.70366287" lon="104.64749146"><ele>444.1</ele><time></time></trkpt>
        <trkpt lat="29.70348167" lon="104.64749146"><ele>441.9</ele><time></time></trkpt>
        <trkpt lat="29.70332146" lon="104.64749146"><ele>442</ele><time></time></trkpt>
        <trkpt lat="29.70318794" lon="104.64744568"><ele>447.1</ele><time></time></trkpt>
        <trkpt lat="29.7030201" lon="104.6474762"><ele>447.7</ele><time></time></trkpt>
        <trkpt lat="29.70284653" lon="104.64746857"><ele>451</ele><time></time></trkpt>
        <trkpt lat="29.70274925" lon="104.64754486"><ele>449</ele><time></time></trkpt>
        <trkpt lat="29.70265007" lon="104.64759827"><ele>451.2</ele><time></time></trkpt>
        <trkpt lat="29.70251846" lon="104.64771271"><ele>449.2</ele><time></time></trkpt>
        <trkpt lat="29.7023735" lon="104.64787292"><ele>446.6</ele><time></time></trkpt>
        <trkpt lat="29.70224762" lon="104.64801025"><ele>440.4</ele><time></time></trkpt>
        <trkpt lat="29.70216942" lon="104.64804077"><ele>441.8</ele><time></time></trkpt>
        <trkpt lat="29.70205879" lon="104.64812469"><ele>433.8</ele><time></time></trkpt>
        <trkpt lat="29.70194817" lon="104.64823151"><ele>424.1</ele><time></time></trkpt>
        <trkpt lat="29.70181084" lon="104.64831543"><ele>421.2</ele><time></time></trkpt>
        <trkpt lat="29.7016449" lon="104.64838409"><ele>424.1</ele><time></time></trkpt>
        <trkpt lat="29.70147133" lon="104.64842224"><ele>427.8</ele><time></time></trkpt>
        <trkpt lat="29.70127869" lon="104.64842224"><ele>428.9</ele><time></time></trkpt>
        <trkpt lat="29.7010994" lon="104.6484375"><ele>428.3</ele><time></time></trkpt>
        <trkpt lat="29.70091438" lon="104.64840698"><ele>426.8</ele><time></time></trkpt>
        <trkpt lat="29.70075035" lon="104.64833069"><ele>426.6</ele><time></time></trkpt>
        <trkpt lat="29.70057869" lon="104.64824677"><ele>431.3</ele><time></time></trkpt>
        <trkpt lat="29.70058632" lon="104.64821625"><ele>434.1</ele><time></time></trkpt>
        <trkpt lat="29.70058823" lon="104.64813232"><ele>441.8</ele><time></time></trkpt>
        <trkpt lat="29.70040321" lon="104.64809418"><ele>450.4</ele><time></time></trkpt>
        <trkpt lat="29.70021439" lon="104.64798737"><ele>455.8</ele><time></time></trkpt>
        <trkpt lat="29.70001411" lon="104.64793396"><ele>457.6</ele><time></time></trkpt>
        <trkpt lat="29.69981384" lon="104.64787292"><ele>461.7</ele><time></time></trkpt>
        <trkpt lat="29.69956398" lon="104.64784241"><ele>479.4</ele><time></time></trkpt>
        <trkpt lat="29.69939232" lon="104.6479187"><ele>490.4</ele><time></time></trkpt>
        <trkpt lat="29.6994133" lon="104.64803314"><ele>481.8</ele><time></time></trkpt>
        <trkpt lat="29.69933128" lon="104.64796448"><ele>474.7</ele><time></time></trkpt>
        <trkpt lat="29.69931793" lon="104.64785004"><ele>461.7</ele><time></time></trkpt>
        <trkpt lat="29.69931793" lon="104.64771271"><ele>457.1</ele><time></time></trkpt>
        <trkpt lat="29.69930649" lon="104.64751434"><ele>459.1</ele><time></time></trkpt>
        <trkpt lat="29.69924927" lon="104.64735413"><ele>464</ele><time></time></trkpt>
        <trkpt lat="29.69922256" lon="104.64724731"><ele>457.9</ele><time></time></trkpt>
        <trkpt lat="29.69920349" lon="104.64720917"><ele>444.2</ele><time></time></trkpt>
        <trkpt lat="29.69917107" lon="104.64710236"><ele>430.8</ele><time></time></trkpt>
        <trkpt lat="29.69918823" lon="104.64710236"><ele>425.1</ele><time></time></trkpt>
        <trkpt lat="29.69917107" lon="104.64707184"><ele>406</ele><time></time></trkpt>
        <trkpt lat="29.69916725" lon="104.64707184"><ele>380.5</ele><time></time></trkpt>
        <trkpt lat="29.69908142" lon="104.64697266"><ele>368.1</ele><time></time></trkpt>
        <trkpt lat="29.69869232" lon="104.64689636"><ele>426.9</ele><time></time></trkpt>
        <trkpt lat="29.69838905" lon="104.64677429"><ele>455.9</ele><time></time></trkpt>
        <trkpt lat="29.69811058" lon="104.64668274"><ele>448.4</ele><time></time></trkpt>
        <trkpt lat="29.69792175" lon="104.64654541"><ele>447.6</ele><time></time></trkpt>
        <trkpt lat="29.69776917" lon="104.64640808"><ele>443.6</ele><time></time></trkpt>
        <trkpt lat="29.69758415" lon="104.64631653"><ele>438.8</ele><time></time></trkpt>
        <trkpt lat="29.6973896" lon="104.64627838"><ele>436</ele><time></time></trkpt>
        <trkpt lat="29.69721222" lon="104.64628601"><ele>434.1</ele><time></time></trkpt>
        <trkpt lat="29.69704247" lon="104.64633179"><ele>431</ele><time></time></trkpt>
        <trkpt lat="29.6968708" lon="104.64635468"><ele>437.1</ele><time></time></trkpt>
        <trkpt lat="29.69666862" lon="104.64637756"><ele>434.4</ele><time></time></trkpt>
        <trkpt lat="29.69651413" lon="104.64646912"><ele>433.3</ele><time></time></trkpt>
        <trkpt lat="29.69636345" lon="104.64658356"><ele>434.4</ele><time></time></trkpt>
        <trkpt lat="29.69618607" lon="104.646698"><ele>433.9</ele><time></time></trkpt>
        <trkpt lat="29.69614792" lon="104.64683533"><ele>430.3</ele><time></time></trkpt>
        <trkpt lat="29.69613838" lon="104.64683533"><ele>431.4</ele><time></time></trkpt>
        <trkpt lat="29.69614029" lon="104.64684296"><ele>432.6</ele><time></time></trkpt>
        <trkpt lat="29.6961174" lon="104.64689636"><ele>426.6</ele><time></time></trkpt>
        <trkpt lat="29.69608498" lon="104.64688873"><ele>431.5</ele><time></time></trkpt>
        <trkpt lat="29.696064" lon="104.64691162"><ele>435</ele><time></time></trkpt>
        <trkpt lat="29.69596291" lon="104.64704132"><ele>432.3</ele><time></time></trkpt>
        <trkpt lat="29.69580078" lon="104.64706421"><ele>430.6</ele><time></time></trkpt>
        <trkpt lat="29.69568634" lon="104.64690399"><ele>429.5</ele><time></time></trkpt>
        <trkpt lat="29.69563675" lon="104.64667511"><ele>431</ele><time></time></trkpt>
        <trkpt lat="29.69556808" lon="104.64646912"><ele>428.2</ele><time></time></trkpt>
        <trkpt lat="29.69548988" lon="104.64624786"><ele>429.8</ele><time></time></trkpt>
        <trkpt lat="29.69540215" lon="104.64607239"><ele>433.1</ele><time></time></trkpt>
        <trkpt lat="29.69534874" lon="104.64588165"><ele>432.5</ele><time></time></trkpt>
        <trkpt lat="29.69530106" lon="104.64569855"><ele>429.9</ele><time></time></trkpt>
        <trkpt lat="29.69525146" lon="104.64547729"><ele>429.9</ele><time></time></trkpt>
        <trkpt lat="29.69522285" lon="104.64528656"><ele>429</ele><time></time></trkpt>
        <trkpt lat="29.69516754" lon="104.64511871"><ele>430.1</ele><time></time></trkpt>
        <trkpt lat="29.69508743" lon="104.64494324"><ele>430.2</ele><time></time></trkpt>
        <trkpt lat="29.69502068" lon="104.64476013"><ele>429</ele><time></time></trkpt>
        <trkpt lat="29.69493484" lon="104.64457703"><ele>427.9</ele><time></time></trkpt>
        <trkpt lat="29.69480133" lon="104.6444397"><ele>425.9</ele><time></time></trkpt>
        <trkpt lat="29.69467926" lon="104.64428711"><ele>423</ele><time></time></trkpt>
        <trkpt lat="29.69453239" lon="104.64412689"><ele>423.7</ele><time></time></trkpt>
        <trkpt lat="29.69441032" lon="104.64398193"><ele>423.9</ele><time></time></trkpt>
        <trkpt lat="29.69428635" lon="104.6438446"><ele>425.7</ele><time></time></trkpt>
        <trkpt lat="29.69420242" lon="104.64370728"><ele>421.7</ele><time></time></trkpt>
        <trkpt lat="29.69410896" lon="104.64356995"><ele>424</ele><time></time></trkpt>
        <trkpt lat="29.69401741" lon="104.64344025"><ele>425.6</ele><time></time></trkpt>
        <trkpt lat="29.69387817" lon="104.64328766"><ele>426.8</ele><time></time></trkpt>
        <trkpt lat="29.6937027" lon="104.64322662"><ele>425.9</ele><time></time></trkpt>
        <trkpt lat="29.69351196" lon="104.64315796"><ele>428.6</ele><time></time></trkpt>
        <trkpt lat="29.69332504" lon="104.64313507"><ele>427.6</ele><time></time></trkpt>
        <trkpt lat="29.69314384" lon="104.64315033"><ele>426.9</ele><time></time></trkpt>
        <trkpt lat="29.692976" lon="104.6431427"><ele>428.5</ele><time></time></trkpt>
        <trkpt lat="29.69280815" lon="104.64311218"><ele>431</ele><time></time></trkpt>
        <trkpt lat="29.69264603" lon="104.64311981"><ele>435.2</ele><time></time></trkpt>
        <trkpt lat="29.69253922" lon="104.64299011"><ele>435.7</ele><time></time></trkpt>
        <trkpt lat="29.69244003" lon="104.64282227"><ele>435.6</ele><time></time></trkpt>
        <trkpt lat="29.69229698" lon="104.64269257"><ele>434.8</ele><time></time></trkpt>
        <trkpt lat="29.69216728" lon="104.64254761"><ele>433.8</ele><time></time></trkpt>
        <trkpt lat="29.69211388" lon="104.64237976"><ele>433.6</ele><time></time></trkpt>
        <trkpt lat="29.69204521" lon="104.64220428"><ele>434.2</ele><time></time></trkpt>
        <trkpt lat="29.6920166" lon="104.64204407"><ele>432.2</ele><time></time></trkpt>
        <trkpt lat="29.69195747" lon="104.64186096"><ele>436.1</ele><time></time></trkpt>
        <trkpt lat="29.6919136" lon="104.64168549"><ele>437</ele><time></time></trkpt>
        <trkpt lat="29.69181824" lon="104.6415329"><ele>431.6</ele><time></time></trkpt>
        <trkpt lat="29.69172859" lon="104.64137268"><ele>429.8</ele><time></time></trkpt>
        <trkpt lat="29.69166946" lon="104.6411972"><ele>426</ele><time></time></trkpt>
        <trkpt lat="29.69167137" lon="104.64102936"><ele>422.9</ele><time></time></trkpt>
        <trkpt lat="29.69172287" lon="104.64090729"><ele>427.9</ele><time></time></trkpt>
        <trkpt lat="29.69174385" lon="104.64079285"><ele>424.2</ele><time></time></trkpt>
        <trkpt lat="29.69176292" lon="104.64058685"><ele>425.7</ele><time></time></trkpt>
        <trkpt lat="29.6917572" lon="104.6403656"><ele>422.8</ele><time></time></trkpt>
        <trkpt lat="29.69186974" lon="104.64019775"><ele>427.2</ele><time></time></trkpt>
        <trkpt lat="29.6919384" lon="104.6401062"><ele>436.1</ele><time></time></trkpt>
        <trkpt lat="29.69208145" lon="104.64000702"><ele>448.1</ele><time></time></trkpt>
        <trkpt lat="29.69222832" lon="104.63986206"><ele>448.4</ele><time></time></trkpt>
        <trkpt lat="29.69246674" lon="104.6398468"><ele>431.4</ele><time></time></trkpt>
        <trkpt lat="29.6926403" lon="104.63978577"><ele>428.4</ele><time></time></trkpt>
        <trkpt lat="29.69281197" lon="104.6396637"><ele>417.6</ele><time></time></trkpt>
        <trkpt lat="29.69284439" lon="104.63961029"><ele>426.6</ele><time></time></trkpt>
        <trkpt lat="29.69296646" lon="104.63948822"><ele>429.1</ele><time></time></trkpt>
        <trkpt lat="29.69315147" lon="104.63932037"><ele>426</ele><time></time></trkpt>
        <trkpt lat="29.69324493" lon="104.63906097"><ele>438.9</ele><time></time></trkpt>
        <trkpt lat="29.69333839" lon="104.63881683"><ele>440.9</ele><time></time></trkpt>
        <trkpt lat="29.69342995" lon="104.6386795"><ele>442.7</ele><time></time></trkpt>
        <trkpt lat="29.69345665" lon="104.63845062"><ele>444.2</ele><time></time></trkpt>
        <trkpt lat="29.69349861" lon="104.63824463"><ele>448.2</ele><time></time></trkpt>
        <trkpt lat="29.69348335" lon="104.63801575"><ele>452.9</ele><time></time></trkpt>
        <trkpt lat="29.69345474" lon="104.63783264"><ele>462.7</ele><time></time></trkpt>
        <trkpt lat="29.6934166" lon="104.63766479"><ele>478.4</ele><time></time></trkpt>
        <trkpt lat="29.69332504" lon="104.63746643"><ele>495.7</ele><time></time></trkpt>
        <trkpt lat="29.69317245" lon="104.6372757"><ele>516.8</ele><time></time></trkpt>
        <trkpt lat="29.69308281" lon="104.63708496"><ele>529.4</ele><time></time></trkpt>
        <trkpt lat="29.69297028" lon="104.63693237"><ele>542.7</ele><time></time></trkpt>
        <trkpt lat="29.69290352" lon="104.63674164"><ele>553.3</ele><time></time></trkpt>
        <trkpt lat="29.69282532" lon="104.63659668"><ele>556.3</ele><time></time></trkpt>
        <trkpt lat="29.69278336" lon="104.63652039"><ele>557.3</ele><time></time></trkpt>
        <trkpt lat="29.69271851" lon="104.6363678"><ele>550.3</ele><time></time></trkpt>
        <trkpt lat="29.6926384" lon="104.63622284"><ele>546.1</ele><time></time></trkpt>
        <trkpt lat="29.69256401" lon="104.6360321"><ele>544.8</ele><time></time></trkpt>
        <trkpt lat="29.69254684" lon="104.63583374"><ele>533.2</ele><time></time></trkpt>
        <trkpt lat="29.69248581" lon="104.63559723"><ele>530.8</ele><time></time></trkpt>
        <trkpt lat="29.69241524" lon="104.63539124"><ele>526</ele><time></time></trkpt>
        <trkpt lat="29.69230652" lon="104.63519287"><ele>526.1</ele><time></time></trkpt>
        <trkpt lat="29.69211578" lon="104.63499451"><ele>525.2</ele><time></time></trkpt>
        <trkpt lat="29.69189262" lon="104.63482666"><ele>523.8</ele><time></time></trkpt>
        <trkpt lat="29.69182014" lon="104.63477325"><ele>530.5</ele><time></time></trkpt>
        <trkpt lat="29.69162941" lon="104.63459015"><ele>542.2</ele><time></time></trkpt>
        <trkpt lat="29.69142342" lon="104.63438416"><ele>559.4</ele><time></time></trkpt>
        <trkpt lat="29.69118881" lon="104.63426971"><ele>559.5</ele><time></time></trkpt>
        <trkpt lat="29.690979" lon="104.63419342"><ele>549.4</ele><time></time></trkpt>
        <trkpt lat="29.69075966" lon="104.63420105"><ele>528.6</ele><time></time></trkpt>
        <trkpt lat="29.69064713" lon="104.63420868"><ele>512.6</ele><time></time></trkpt>
        <trkpt lat="29.69046402" lon="104.63420868"><ele>498.1</ele><time></time></trkpt>
        <trkpt lat="29.69027138" lon="104.63419342"><ele>478.2</ele><time></time></trkpt>
        <trkpt lat="29.69011307" lon="104.63414764"><ele>468.1</ele><time></time></trkpt>
        <trkpt lat="29.68993568" lon="104.63405609"><ele>470.1</ele><time></time></trkpt>
        <trkpt lat="29.68975067" lon="104.63391876"><ele>470.7</ele><time></time></trkpt>
        <trkpt lat="29.68951797" lon="104.63381958"><ele>478.9</ele><time></time></trkpt>
        <trkpt lat="29.68930244" lon="104.6337738"><ele>488.4</ele><time></time></trkpt>
        <trkpt lat="29.68907738" lon="104.63376617"><ele>493.8</ele><time></time></trkpt>
        <trkpt lat="29.68888855" lon="104.63376617"><ele>492.4</ele><time></time></trkpt>
        <trkpt lat="29.68871307" lon="104.63378906"><ele>485.9</ele><time></time></trkpt>
        <trkpt lat="29.68852997" lon="104.63382721"><ele>470.3</ele><time></time></trkpt>
        <trkpt lat="29.68834496" lon="104.63386536"><ele>463.9</ele><time></time></trkpt>
        <trkpt lat="29.68815231" lon="104.63389587"><ele>461.4</ele><time></time></trkpt>
        <trkpt lat="29.68800926" lon="104.63387299"><ele>463.5</ele><time></time></trkpt>
        <trkpt lat="29.68781662" lon="104.63375854"><ele>479.8</ele><time></time></trkpt>
        <trkpt lat="29.68763161" lon="104.63367462"><ele>489.4</ele><time></time></trkpt>
        <trkpt lat="29.68746185" lon="104.63359833"><ele>491.4</ele><time></time></trkpt>
        <trkpt lat="29.6873188" lon="104.63358307"><ele>486</ele><time></time></trkpt>
        <trkpt lat="29.68725967" lon="104.63349152"><ele>488.3</ele><time></time></trkpt>
        <trkpt lat="29.68721771" lon="104.63334656"><ele>485.8</ele><time></time></trkpt>
        <trkpt lat="29.68722916" lon="104.63318634"><ele>489.3</ele><time></time></trkpt>
        <trkpt lat="29.68723106" lon="104.63300323"><ele>491.9</ele><time></time></trkpt>
        <trkpt lat="29.68721581" lon="104.6328125"><ele>491.7</ele><time></time></trkpt>
        <trkpt lat="29.68719292" lon="104.63259888"><ele>497</ele><time></time></trkpt>
        <trkpt lat="29.68709755" lon="104.63240051"><ele>506</ele><time></time></trkpt>
        <trkpt lat="29.68699074" lon="104.63220978"><ele>517.5</ele><time></time></trkpt>
        <trkpt lat="29.68687057" lon="104.6320343"><ele>526.4</ele><time></time></trkpt>
        <trkpt lat="29.68653679" lon="104.63188934"><ele>543.2</ele><time></time></trkpt>
        <trkpt lat="29.68636513" lon="104.63172913"><ele>548.4</ele><time></time></trkpt>
        <trkpt lat="29.68623352" lon="104.63156891"><ele>543</ele><time></time></trkpt>
        <trkpt lat="29.68593788" lon="104.63140106"><ele>560</ele><time></time></trkpt>
        <trkpt lat="29.68572807" lon="104.6312561"><ele>572.4</ele><time></time></trkpt>
        <trkpt lat="29.68561554" lon="104.63127136"><ele>587.1</ele><time></time></trkpt>
        <trkpt lat="29.68548203" lon="104.63116455"><ele>584.6</ele><time></time></trkpt>
        <trkpt lat="29.68535614" lon="104.63103485"><ele>589.4</ele><time></time></trkpt>
        <trkpt lat="29.68531609" lon="104.63088989"><ele>586.4</ele><time></time></trkpt>
        <trkpt lat="29.68531418" lon="104.63071442"><ele>578.9</ele><time></time></trkpt>
        <trkpt lat="29.68530083" lon="104.63059235"><ele>577.3</ele><time></time></trkpt>
        <trkpt lat="29.68524361" lon="104.63047028"><ele>579.8</ele><time></time></trkpt>
        <trkpt lat="29.68522835" lon="104.63031769"><ele>570.7</ele><time></time></trkpt>
        <trkpt lat="29.68517113" lon="104.6301651"><ele>563.3</ele><time></time></trkpt>
        <trkpt lat="29.68511009" lon="104.62998962"><ele>575</ele><time></time></trkpt>
        <trkpt lat="29.6849041" lon="104.62976837"><ele>588.7</ele><time></time></trkpt>
        <trkpt lat="29.68472862" lon="104.62961578"><ele>598.7</ele><time></time></trkpt>
        <trkpt lat="29.68452072" lon="104.6294632"><ele>603.2</ele><time></time></trkpt>
        <trkpt lat="29.68427467" lon="104.62928772"><ele>596</ele><time></time></trkpt>
        <trkpt lat="29.6841259" lon="104.6291275"><ele>584.9</ele><time></time></trkpt>
        <trkpt lat="29.68408966" lon="104.62902069"><ele>564.8</ele><time></time></trkpt>
        <trkpt lat="29.6841526" lon="104.62890625"><ele>550.7</ele><time></time></trkpt>
        <trkpt lat="29.68430519" lon="104.62877655"><ele>538</ele><time></time></trkpt>
        <trkpt lat="29.68437958" lon="104.62865448"><ele>511.7</ele><time></time></trkpt>
        <trkpt lat="29.68434715" lon="104.62850189"><ele>494.9</ele><time></time></trkpt>
        <trkpt lat="29.68430138" lon="104.62831116"><ele>484.8</ele><time></time></trkpt>
        <trkpt lat="29.68441391" lon="104.62813568"><ele>480.7</ele><time></time></trkpt>
        <trkpt lat="29.68453026" lon="104.62793732"><ele>481.7</ele><time></time></trkpt>
        <trkpt lat="29.68464661" lon="104.62773895"><ele>493.6</ele><time></time></trkpt>
        <trkpt lat="29.68462753" lon="104.62750244"><ele>502.1</ele><time></time></trkpt>
        <trkpt lat="29.68463707" lon="104.62728882"><ele>506.6</ele><time></time></trkpt>
        <trkpt lat="29.68455505" lon="104.62705994"><ele>500.4</ele><time></time></trkpt>
        <trkpt lat="29.68440247" lon="104.62680817"><ele>495.2</ele><time></time></trkpt>
        <trkpt lat="29.68440437" lon="104.62657928"><ele>502.6</ele><time></time></trkpt>
        <trkpt lat="29.68431091" lon="104.62636566"><ele>507.1</ele><time></time></trkpt>
        <trkpt lat="29.68424416" lon="104.62618256"><ele>501</ele><time></time></trkpt>
        <trkpt lat="29.68415642" lon="104.62599945"><ele>491.5</ele><time></time></trkpt>
        <trkpt lat="29.68403816" lon="104.62580872"><ele>487.6</ele><time></time></trkpt>
        <trkpt lat="29.6837616" lon="104.6255722"><ele>515.7</ele><time></time></trkpt>
        <trkpt lat="29.68359947" lon="104.62535095"><ele>536.8</ele><time></time></trkpt>
        <trkpt lat="29.68347931" lon="104.62516022"><ele>547.6</ele><time></time></trkpt>
        <trkpt lat="29.68332291" lon="104.62496948"><ele>560.6</ele><time></time></trkpt>
        <trkpt lat="29.68319321" lon="104.62472534"><ele>575.4</ele><time></time></trkpt>
        <trkpt lat="29.68305206" lon="104.6245575"><ele>574.8</ele><time></time></trkpt>
        <trkpt lat="29.68299294" lon="104.62436676"><ele>588.5</ele><time></time></trkpt>
        <trkpt lat="29.68306351" lon="104.62417603"><ele>590.3</ele><time></time></trkpt>
        <trkpt lat="29.68308449" lon="104.62402344"><ele>595.6</ele><time></time></trkpt>
        <trkpt lat="29.68309975" lon="104.62386322"><ele>602.3</ele><time></time></trkpt>
        <trkpt lat="29.68294525" lon="104.62367249"><ele>620</ele><time></time></trkpt>
        <trkpt lat="29.68287849" lon="104.62346649"><ele>635.3</ele><time></time></trkpt>
        <trkpt lat="29.6829567" lon="104.62329865"><ele>628.1</ele><time></time></trkpt>
        <trkpt lat="29.68289375" lon="104.62310791"><ele>611.2</ele><time></time></trkpt>
        <trkpt lat="29.68282318" lon="104.6229248"><ele>615.7</ele><time></time></trkpt>
        <trkpt lat="29.68255615" lon="104.62270355"><ele>618.3</ele><time></time></trkpt>
        <trkpt lat="29.68245316" lon="104.62252808"><ele>591.2</ele><time></time></trkpt>
        <trkpt lat="29.6823864" lon="104.62239838"><ele>563</ele><time></time></trkpt>
        <trkpt lat="29.68229675" lon="104.62224579"><ele>532.1</ele><time></time></trkpt>
        <trkpt lat="29.68219376" lon="104.62210846"><ele>492.7</ele><time></time></trkpt>
        <trkpt lat="29.68224907" lon="104.62195587"><ele>453.5</ele><time></time></trkpt>
        <trkpt lat="29.68233871" lon="104.62189484"><ele>428.7</ele><time></time></trkpt>
        <trkpt lat="29.6823597" lon="104.6217804"><ele>415</ele><time></time></trkpt>
        <trkpt lat="29.68231201" lon="104.62166595"><ele>410.2</ele><time></time></trkpt>
        <trkpt lat="29.68232918" lon="104.62152863"><ele>403</ele><time></time></trkpt>
        <trkpt lat="29.6823349" lon="104.62133789"><ele>395.3</ele><time></time></trkpt>
        <trkpt lat="29.68234253" lon="104.62117767"><ele>390.4</ele><time></time></trkpt>
        <trkpt lat="29.68234444" lon="104.62098694"><ele>392.5</ele><time></time></trkpt>
        <trkpt lat="29.6823101" lon="104.62082672"><ele>404.6</ele><time></time></trkpt>
      </trkseg>
  </trk>
</gpx>